| time (UTC) | temp C | wind direction | speed KPH | gust KPH | rain 1hr cm | rain 24hr cm | rain mn cm | humidity % | barometer mb |
| 20260503230903 | 18 | 306 | 6.4 | 16.1 | 0.00 | 0.00 | 0.00 | 60 | 1009.6 |
| 20260503230803 | 18 | 306 | 6.4 | 16.1 | 0.00 | 0.00 | 0.00 | 60 | 1009.8 |
| 20260503230703 | 19 | 306 | 6.4 | 16.1 | 0.00 | 0.00 | 0.00 | 60 | 1009.7 |
| 20260503230603 | 18 | 306 | 6.4 | 16.1 | 0.00 | 0.00 | 0.00 | 60 | 1009.7 |
| 20260503230503 | 18 | 305 | 6.4 | 16.1 | 0.00 | 0.00 | 0.00 | 60 | 1009.7 |
| 20260503230403 | 18 | 305 | 6.4 | 16.1 | 0.00 | 0.00 | 0.00 | 60 | 1009.8 |
| 20260503230303 | 18 | 305 | 6.4 | 17.7 | 0.00 | 0.00 | 0.00 | 60 | 1009.7 |
| 20260503230203 | 18 | 307 | 6.4 | 17.7 | 0.00 | 0.00 | 0.00 | 60 | 1009.8 |
| 20260503230103 | 18 | 305 | 6.4 | 17.7 | 0.00 | 0.00 | 0.00 | 59 | 1009.8 |
| 20260503230018 | 18 | 302 | 6.4 | 17.7 | 0.00 | 0.00 | 0.00 | 59 | 1009.9 |
| 20260503230005 | 18 | 302 | 4.8 | 17.7 | 0.00 | 0.00 | 0.00 | 59 | 1009.9 |
| 20260503225903 | 18 | 301 | 4.8 | 17.7 | 0.00 | 0.00 | 0.00 | 59 | 1009.8 |
| 20260503225704 | 18 | 300 | 4.8 | 17.7 | 0.00 | 0.00 | 0.00 | 59 | 1009.8 |
| 20260503225603 | 18 | 300 | 4.8 | 17.7 | 0.00 | 0.00 | 0.00 | 59 | 1009.9 |
| 20260503225503 | 18 | 302 | 4.8 | 17.7 | 0.00 | 0.00 | 0.00 | 58 | 1009.9 |
| 20260503225403 | 18 | 302 | 4.8 | 17.7 | 0.00 | 0.00 | 0.00 | 58 | 1009.9 |
| 20260503225304 | 18 | 303 | 4.8 | 14.5 | 0.00 | 0.00 | 0.00 | 58 | 1009.9 |
| 20260503225217 | 18 | 301 | 4.8 | 14.5 | 0.00 | 0.00 | 0.00 | 57 | 1009.9 |
| 20260503225203 | 18 | 300 | 4.8 | 12.9 | 0.00 | 0.00 | 0.00 | 58 | 1009.9 |
| 20260503225103 | 18 | 302 | 4.8 | 12.9 | 0.00 | 0.00 | 0.00 | 58 | 1009.9 |
| 20260503224903 | 18 | 303 | 4.8 | 14.5 | 0.00 | 0.00 | 0.00 | 58 | 1010.0 |
| 20260503224803 | 18 | 301 | 4.8 | 14.5 | 0.00 | 0.00 | 0.00 | 58 | 1009.9 |
| 20260503224703 | 18 | 302 | 4.8 | 14.5 | 0.00 | 0.00 | 0.00 | 59 | 1009.9 |
| 20260503224603 | 18 | 304 | 4.8 | 14.5 | 0.00 | 0.00 | 0.00 | 59 | 1009.9 |
| 20260503224503 | 18 | 305 | 4.8 | 14.5 | 0.00 | 0.00 | 0.00 | 58 | 1009.9 |
| 20260503224403 | 18 | 306 | 4.8 | 14.5 | 0.00 | 0.00 | 0.00 | 58 | 1009.9 |
| 20260503224303 | 18 | 305 | 4.8 | 14.5 | 0.00 | 0.00 | 0.00 | 59 | 1010.0 |
| 20260503224203 | 18 | 305 | 4.8 | 14.5 | 0.00 | 0.00 | 0.00 | 60 | 1010.0 |
| 20260503224103 | 18 | 303 | 4.8 | 14.5 | 0.00 | 0.00 | 0.00 | 59 | 1010.0 |
| 20260503224004 | 18 | 302 | 4.8 | 12.9 | 0.00 | 0.00 | 0.00 | 59 | 1010.0 |
| 20260503223918 | 18 | 303 | 4.8 | 12.9 | 0.00 | 0.00 | 0.00 | 59 | 1009.9 |
| 20260503223903 | 18 | 304 | 4.8 | 12.9 | 0.00 | 0.00 | 0.00 | 59 | 1010.0 |
| 20260503223803 | 18 | 304 | 4.8 | 12.9 | 0.00 | 0.00 | 0.00 | 60 | 1010.0 |
| 20260503223603 | 18 | 302 | 4.8 | 14.5 | 0.00 | 0.00 | 0.00 | 59 | 1010.1 |
| 20260503223503 | 18 | 299 | 4.8 | 14.5 | 0.00 | 0.00 | 0.00 | 59 | 1010.1 |
| 20260503223403 | 18 | 298 | 4.8 | 14.5 | 0.00 | 0.00 | 0.00 | 59 | 1010.2 |
| 20260503223303 | 18 | 300 | 4.8 | 14.5 | 0.00 | 0.00 | 0.00 | 59 | 1010.1 |
| 20260503223203 | 18 | 301 | 4.8 | 14.5 | 0.00 | 0.00 | 0.00 | 58 | 1010.0 |
| 20260503223103 | 18 | 301 | 4.8 | 14.5 | 0.00 | 0.00 | 0.00 | 59 | 1010.1 |
| 20260503223003 | 18 | 304 | 4.8 | 14.5 | 0.00 | 0.00 | 0.00 | 60 | 1010.1 |
| 20260503222903 | 18 | 305 | 4.8 | 14.5 | 0.00 | 0.00 | 0.00 | 60 | 1010.2 |
| 20260503222803 | 18 | 307 | 4.8 | 14.5 | 0.00 | 0.00 | 0.00 | 60 | 1010.2 |
| 20260503222603 | 18 | 308 | 4.8 | 12.9 | 0.00 | 0.00 | 0.00 | 61 | 1010.3 |
| 20260503222517 | 18 | 309 | 4.8 | 12.9 | 0.00 | 0.00 | 0.00 | 61 | 1010.2 |
| 20260503222503 | 18 | 309 | 4.8 | 12.9 | 0.00 | 0.00 | 0.00 | 61 | 1010.2 |
| 20260503222403 | 18 | 312 | 4.8 | 12.9 | 0.00 | 0.00 | 0.00 | 61 | 1010.2 |
| 20260503222218 | 18 | 310 | 4.8 | 17.7 | 0.00 | 0.00 | 0.00 | 61 | 1010.3 |
| 20260503222203 | 18 | 309 | 6.4 | 17.7 | 0.00 | 0.00 | 0.00 | 61 | 1010.3 |
| 20260503222103 | 18 | 309 | 6.4 | 17.7 | 0.00 | 0.00 | 0.00 | 60 | 1010.2 |
| 20260503221903 | 18 | 308 | 4.8 | 17.7 | 0.00 | 0.00 | 0.00 | 60 | 1010.3 |
| 20260503221816 | 18 | 307 | 4.8 | 17.7 | 0.00 | 0.00 | 0.00 | 59 | 1010.3 |
| 20260503221803 | 18 | 308 | 6.4 | 17.7 | 0.00 | 0.00 | 0.00 | 59 | 1010.3 |
| 20260503221703 | 18 | 310 | 6.4 | 19.3 | 0.00 | 0.00 | 0.00 | 59 | 1010.3 |
| 20260503221503 | 18 | 307 | 4.8 | 19.3 | 0.00 | 0.00 | 0.00 | 59 | 1010.3 |
| 20260503221403 | 18 | 305 | 4.8 | 19.3 | 0.00 | 0.00 | 0.00 | 59 | 1010.3 |
| 20260503221303 | 19 | 304 | 4.8 | 19.3 | 0.00 | 0.00 | 0.00 | 58 | 1010.3 |
| 20260503221203 | 19 | 304 | 4.8 | 19.3 | 0.00 | 0.00 | 0.00 | 58 | 1010.4 |
| 20260503221104 | 19 | 303 | 4.8 | 19.3 | 0.00 | 0.00 | 0.00 | 59 | 1010.3 |
| 20260503221003 | 19 | 303 | 4.8 | 19.3 | 0.00 | 0.00 | 0.00 | 59 | 1010.4 |
| 20260503220904 | 19 | 301 | 4.8 | 19.3 | 0.00 | 0.00 | 0.00 | 58 | 1010.4 |
| 20260503220816 | 19 | 300 | 4.8 | 19.3 | 0.00 | 0.00 | 0.00 | 59 | 1010.3 |
| 20260503220703 | 19 | 297 | 4.8 | 17.7 | 0.00 | 0.00 | 0.00 | 59 | 1010.4 |
| 20260503220503 | 19 | 301 | 4.8 | 17.7 | 0.00 | 0.00 | 0.00 | 58 | 1010.3 |
| 20260503220403 | 19 | 302 | 4.8 | 17.7 | 0.00 | 0.00 | 0.00 | 58 | 1010.3 |
| 20260503220303 | 19 | 304 | 4.8 | 11.3 | 0.00 | 0.00 | 0.00 | 60 | 1010.4 |
| 20260503220203 | 19 | 307 | 4.8 | 12.9 | 0.00 | 0.00 | 0.00 | 59 | 1010.4 |
| 20260503220104 | 19 | 306 | 4.8 | 14.5 | 0.00 | 0.00 | 0.00 | 58 | 1010.5 |
| 20260503220003 | 19 | 306 | 4.8 | 14.5 | 0.00 | 0.00 | 0.00 | 58 | 1010.4 |
| 20260503215903 | 19 | 307 | 4.8 | 14.5 | 0.00 | 0.00 | 0.00 | 58 | 1010.4 |
| 20260503215803 | 19 | 305 | 4.8 | 14.5 | 0.00 | 0.00 | 0.00 | 58 | 1010.4 |
| 20260503215717 | 19 | 305 | 4.8 | 14.5 | 0.00 | 0.00 | 0.00 | 58 | 1010.4 |
| 20260503215603 | 19 | 302 | 4.8 | 14.5 | 0.00 | 0.00 | 0.00 | 58 | 1010.4 |
| 20260503215518 | 19 | 303 | 4.8 | 14.5 | 0.00 | 0.00 | 0.00 | 58 | 1010.5 |
| 20260503215203 | 19 | 297 | 4.8 | 14.5 | 0.00 | 0.00 | 0.00 | 57 | 1010.4 |
| 20260503215103 | 19 | 298 | 4.8 | 12.9 | 0.00 | 0.00 | 0.00 | 59 | 1010.4 |
| 20260503215003 | 19 | 298 | 6.4 | 12.9 | 0.00 | 0.00 | 0.00 | 59 | 1010.5 |
| 20260503214903 | 19 | 298 | 6.4 | 12.9 | 0.00 | 0.00 | 0.00 | 58 | 1010.4 |
| 20260503214803 | 19 | 299 | 6.4 | 12.9 | 0.00 | 0.00 | 0.00 | 58 | 1010.4 |
| 20260503214703 | 19 | 302 | 6.4 | 12.9 | 0.00 | 0.00 | 0.00 | 59 | 1010.5 |
| 20260503214617 | 19 | 302 | 6.4 | 12.9 | 0.00 | 0.00 | 0.00 | 58 | 1010.5 |
| 20260503214603 | 19 | 302 | 4.8 | 12.9 | 0.00 | 0.00 | 0.00 | 58 | 1010.4 |
| 20260503214503 | 19 | 303 | 4.8 | 12.9 | 0.00 | 0.00 | 0.00 | 57 | 1010.5 |
| 20260503214203 | 19 | 301 | 4.8 | 12.9 | 0.00 | 0.00 | 0.00 | 58 | 1010.4 |
| 20260503214103 | 20 | 301 | 4.8 | 12.9 | 0.00 | 0.00 | 0.00 | 58 | 1010.5 |
| 20260503214017 | 20 | 302 | 4.8 | 12.9 | 0.00 | 0.00 | 0.00 | 57 | 1010.5 |
| 20260503214003 | 20 | 302 | 4.8 | 12.9 | 0.00 | 0.00 | 0.00 | 57 | 1010.4 |
| 20260503213903 | 20 | 303 | 4.8 | 12.9 | 0.00 | 0.00 | 0.00 | 58 | 1010.5 |
| 20260503213703 | 20 | 304 | 4.8 | 14.5 | 0.00 | 0.00 | 0.00 | 58 | 1010.5 |
| 20260503213603 | 20 | 304 | 4.8 | 14.5 | 0.00 | 0.00 | 0.00 | 58 | 1010.5 |
| 20260503213503 | 20 | 303 | 4.8 | 14.5 | 0.00 | 0.00 | 0.00 | 59 | 1010.5 |
| 20260503213403 | 20 | 300 | 4.8 | 14.5 | 0.00 | 0.00 | 0.00 | 58 | 1010.5 |
| 20260503213303 | 20 | 301 | 4.8 | 16.1 | 0.00 | 0.00 | 0.00 | 58 | 1010.5 |
| 20260503213203 | 20 | 304 | 4.8 | 16.1 | 0.00 | 0.00 | 0.00 | 58 | 1010.4 |
| 20260503213103 | 20 | 307 | 4.8 | 16.1 | 0.00 | 0.00 | 0.00 | 58 | 1010.5 |
| 20260503213003 | 20 | 308 | 4.8 | 16.1 | 0.00 | 0.00 | 0.00 | 57 | 1010.5 |
| 20260503212903 | 20 | 306 | 4.8 | 16.1 | 0.00 | 0.00 | 0.00 | 57 | 1010.5 |
| 20260503212803 | 20 | 303 | 4.8 | 16.1 | 0.00 | 0.00 | 0.00 | 57 | 1010.4 |
| 20260503212703 | 20 | 304 | 4.8 | 16.1 | 0.00 | 0.00 | 0.00 | 56 | 1010.4 |
| 20260503212603 | 20 | 304 | 4.8 | 16.1 | 0.00 | 0.00 | 0.00 | 56 | 1010.4 |
| 20260503212518 | 20 | 304 | 4.8 | 16.1 | 0.00 | 0.00 | 0.00 | 56 | 1010.4 |
| 20260503212503 | 20 | 305 | 4.8 | 16.1 | 0.00 | 0.00 | 0.00 | 56 | 1010.4 |
| 20260503212403 | 20 | 307 | 4.8 | 16.1 | 0.00 | 0.00 | 0.00 | 55 | 1010.4 |
| 20260503212203 | 20 | 307 | 3.2 | 11.3 | 0.00 | 0.00 | 0.00 | 54 | 1010.5 |
| 20260503212118 | 20 | 305 | 3.2 | 11.3 | 0.00 | 0.00 | 0.00 | 55 | 1010.4 |
| 20260503212103 | 20 | 302 | 3.2 | 11.3 | 0.00 | 0.00 | 0.00 | 55 | 1010.4 |
| 20260503212003 | 20 | 300 | 3.2 | 11.3 | 0.00 | 0.00 | 0.00 | 56 | 1010.5 |
| 20260503211803 | 20 | 306 | 3.2 | 11.3 | 0.00 | 0.00 | 0.00 | 56 | 1010.4 |
| 20260503211703 | 20 | 304 | 3.2 | 11.3 | 0.00 | 0.00 | 0.00 | 56 | 1010.4 |
| 20260503211603 | 20 | 306 | 3.2 | 11.3 | 0.00 | 0.00 | 0.00 | 56 | 1010.3 |
| 20260503211503 | 20 | 305 | 3.2 | 11.3 | 0.00 | 0.00 | 0.00 | 57 | 1010.4 |
| 20260503211303 | 20 | 304 | 4.8 | 11.3 | 0.00 | 0.00 | 0.00 | 55 | 1010.4 |
| 20260503211203 | 20 | 303 | 4.8 | 12.9 | 0.00 | 0.00 | 0.00 | 55 | 1010.5 |
| 20260503211103 | 20 | 305 | 4.8 | 12.9 | 0.00 | 0.00 | 0.00 | 55 | 1010.5 |
| 20260503211003 | 20 | 305 | 4.8 | 12.9 | 0.00 | 0.00 | 0.00 | 55 | 1010.4 |
| 20260503210903 | 20 | 305 | 4.8 | 12.9 | 0.00 | 0.00 | 0.00 | 56 | 1010.5 |
| 20260503210803 | 20 | 305 | 4.8 | 12.9 | 0.00 | 0.00 | 0.00 | 55 | 1010.4 |
| 20260503210704 | 20 | 305 | 4.8 | 12.9 | 0.00 | 0.00 | 0.00 | 55 | 1010.5 |
| 20260503210603 | 20 | 304 | 4.8 | 12.9 | 0.00 | 0.00 | 0.00 | 55 | 1010.4 |
| 20260503210503 | 20 | 304 | 4.8 | 12.9 | 0.00 | 0.00 | 0.00 | 55 | 1010.4 |
| 20260503210403 | 20 | 306 | 4.8 | 12.9 | 0.00 | 0.00 | 0.00 | 55 | 1010.5 |
| 20260503210303 | 20 | 304 | 4.8 | 12.9 | 0.00 | 0.00 | 0.00 | 54 | 1010.6 |
| 20260503210204 | 20 | 304 | 4.8 | 11.3 | 0.00 | 0.00 | 0.00 | 55 | 1010.5 |
| 20260503210004 | 20 | 305 | 4.8 | 11.3 | 0.00 | 0.00 | 0.00 | 55 | 1010.6 |
| 20260503205903 | 20 | 304 | 4.8 | 11.3 | 0.00 | 0.00 | 0.00 | 54 | 1010.5 |
| 20260503205803 | 20 | 303 | 4.8 | 11.3 | 0.00 | 0.00 | 0.00 | 54 | 1010.5 |
| 20260503205703 | 20 | 304 | 4.8 | 11.3 | 0.00 | 0.00 | 0.00 | 54 | 1010.5 |
| 20260503205605 | 20 | 303 | 4.8 | 11.3 | 0.00 | 0.00 | 0.00 | 53 | 1010.5 |
| 20260503205503 | 21 | 301 | 4.8 | 11.3 | 0.00 | 0.00 | 0.00 | 55 | 1010.6 |
| 20260503205403 | 20 | 299 | 4.8 | 11.3 | 0.00 | 0.00 | 0.00 | 54 | 1010.6 |
| 20260503205304 | 21 | 304 | 4.8 | 11.3 | 0.00 | 0.00 | 0.00 | 54 | 1010.6 |
| 20260503205203 | 21 | 302 | 4.8 | 11.3 | 0.00 | 0.00 | 0.00 | 53 | 1010.7 |
| 20260503205118 | 21 | 305 | 4.8 | 11.3 | 0.00 | 0.00 | 0.00 | 52 | 1010.7 |
| 20260503205103 | 21 | 306 | 4.8 | 11.3 | 0.00 | 0.00 | 0.00 | 52 | 1010.7 |
| 20260503205004 | 21 | 303 | 4.8 | 11.3 | 0.00 | 0.00 | 0.00 | 52 | 1010.6 |
| 20260503204818 | 21 | 304 | 4.8 | 11.3 | 0.00 | 0.00 | 0.00 | 52 | 1010.6 |
| 20260503204803 | 21 | 304 | 4.8 | 11.3 | 0.00 | 0.00 | 0.00 | 52 | 1010.7 |
| 20260503204717 | 21 | 304 | 4.8 | 11.3 | 0.00 | 0.00 | 0.00 | 54 | 1010.7 |
| 20260503204703 | 21 | 304 | 3.2 | 11.3 | 0.00 | 0.00 | 0.00 | 54 | 1010.7 |
| 20260503204403 | 21 | 306 | 3.2 | 11.3 | 0.00 | 0.00 | 0.00 | 51 | 1010.7 |
| 20260503204319 | 21 | 302 | 3.2 | 11.3 | 0.00 | 0.00 | 0.00 | 51 | 1010.7 |
| 20260503204303 | 21 | 301 | 3.2 | 11.3 | 0.00 | 0.00 | 0.00 | 51 | 1010.7 |
| 20260503204203 | 21 | 304 | 3.2 | 11.3 | 0.00 | 0.00 | 0.00 | 51 | 1010.7 |
| 20260503204003 | 21 | 300 | 3.2 | 11.3 | 0.00 | 0.00 | 0.00 | 50 | 1010.8 |
| 20260503203917 | 21 | 300 | 3.2 | 11.3 | 0.00 | 0.00 | 0.00 | 51 | 1010.7 |
| 20260503203903 | 21 | 299 | 3.2 | 11.3 | 0.00 | 0.00 | 0.00 | 51 | 1010.7 |
| 20260503203804 | 21 | 300 | 3.2 | 9.7 | 0.00 | 0.00 | 0.00 | 51 | 1010.7 |
| 20260503203617 | 21 | 301 | 3.2 | 9.7 | 0.00 | 0.00 | 0.00 | 54 | 1010.7 |
| 20260503203603 | 21 | 301 | 4.8 | 9.7 | 0.00 | 0.00 | 0.00 | 54 | 1010.7 |
| 20260503203503 | 21 | 304 | 4.8 | 12.9 | 0.00 | 0.00 | 0.00 | 51 | 1010.7 |
| 20260503203218 | 21 | 305 | 3.2 | 12.9 | 0.00 | 0.00 | 0.00 | 52 | 1010.7 |
| 20260503203203 | 21 | 306 | 4.8 | 12.9 | 0.00 | 0.00 | 0.00 | 52 | 1010.7 |
| 20260503203103 | 21 | 306 | 4.8 | 12.9 | 0.00 | 0.00 | 0.00 | 50 | 1010.7 |
| 20260503202903 | 21 | 305 | 3.2 | 12.9 | 0.00 | 0.00 | 0.00 | 50 | 1010.8 |
| 20260503202803 | 21 | 302 | 3.2 | 12.9 | 0.00 | 0.00 | 0.00 | 50 | 1010.7 |
| 20260503202703 | 21 | 301 | 4.8 | 12.9 | 0.00 | 0.00 | 0.00 | 50 | 1010.7 |
| 20260503202603 | 21 | 301 | 3.2 | 12.9 | 0.00 | 0.00 | 0.00 | 50 | 1010.8 |
| 20260503202503 | 21 | 303 | 4.8 | 11.3 | 0.00 | 0.00 | 0.00 | 52 | 1010.8 |
| 20260503202403 | 21 | 305 | 4.8 | 11.3 | 0.00 | 0.00 | 0.00 | 52 | 1010.7 |
| 20260503202304 | 21 | 305 | 4.8 | 11.3 | 0.00 | 0.00 | 0.00 | 52 | 1010.8 |
| 20260503202104 | 21 | 307 | 4.8 | 11.3 | 0.00 | 0.00 | 0.00 | 50 | 1010.7 |
| 20260503202019 | 21 | 308 | 4.8 | 11.3 | 0.00 | 0.00 | 0.00 | 51 | 1010.8 |
| 20260503202003 | 21 | 307 | 4.8 | 11.3 | 0.00 | 0.00 | 0.00 | 50 | 1010.8 |
| 20260503201903 | 21 | 308 | 4.8 | 11.3 | 0.00 | 0.00 | 0.00 | 51 | 1010.8 |
| 20260503201706 | 21 | 312 | 4.8 | 9.7 | 0.00 | 0.00 | 0.00 | 52 | 1010.9 |
| 20260503201604 | 21 | 309 | 4.8 | 11.3 | 0.00 | 0.00 | 0.00 | 52 | 1010.8 |
| 20260503201506 | 21 | 306 | 4.8 | 11.3 | 0.00 | 0.00 | 0.00 | 52 | 1010.9 |
| 20260503201406 | 21 | 302 | 4.8 | 11.3 | 0.00 | 0.00 | 0.00 | 50 | 1010.9 |
| 20260503201306 | 21 | 302 | 4.8 | 11.3 | 0.00 | 0.00 | 0.00 | 52 | 1010.9 |
| 20260503201217 | 21 | 303 | 4.8 | 11.3 | 0.00 | 0.00 | 0.00 | 52 | 1010.9 |
| 20260503201206 | 21 | 302 | 4.8 | 11.3 | 0.00 | 0.00 | 0.00 | 52 | 1011.0 |
| 20260503201104 | 21 | 302 | 4.8 | 11.3 | 0.00 | 0.00 | 0.00 | 51 | 1011.0 |
| 20260503200903 | 21 | 300 | 4.8 | 11.3 | 0.00 | 0.00 | 0.00 | 53 | 1010.9 |
| 20260503200818 | 21 | 302 | 4.8 | 11.3 | 0.00 | 0.00 | 0.00 | 51 | 1011.0 |
| 20260503200803 | 21 | 302 | 4.8 | 12.9 | 0.00 | 0.00 | 0.00 | 50 | 1011.0 |
| 20260503200719 | 21 | 302 | 4.8 | 12.9 | 0.00 | 0.00 | 0.00 | 50 | 1011.0 |
| 20260503200703 | 21 | 301 | 4.8 | 12.9 | 0.00 | 0.00 | 0.00 | 52 | 1011.0 |
| 20260503200403 | 21 | 306 | 4.8 | 12.9 | 0.00 | 0.00 | 0.00 | 53 | 1011.0 |
| 20260503200303 | 21 | 305 | 4.8 | 12.9 | 0.00 | 0.00 | 0.00 | 53 | 1011.1 |
| 20260503200203 | 21 | 305 | 4.8 | 12.9 | 0.00 | 0.00 | 0.00 | 53 | 1011.1 |
| 20260503200006 | 21 | 305 | 4.8 | 12.9 | 0.00 | 0.00 | 0.00 | 53 | 1011.1 |
| 20260503195919 | 21 | 306 | 4.8 | 12.9 | 0.00 | 0.00 | 0.00 | 52 | 1011.2 |
| 20260503195803 | 20 | 306 | 4.8 | 12.9 | 0.00 | 0.00 | 0.00 | 53 | 1011.1 |
| 20260503195603 | 20 | 305 | 4.8 | 12.9 | 0.00 | 0.00 | 0.00 | 51 | 1011.2 |
| 20260503195503 | 20 | 305 | 3.2 | 12.9 | 0.00 | 0.00 | 0.00 | 52 | 1011.3 |
| 20260503195403 | 20 | 303 | 3.2 | 12.9 | 0.00 | 0.00 | 0.00 | 52 | 1011.3 |
| 20260503195304 | 20 | 303 | 3.2 | 12.9 | 0.00 | 0.00 | 0.00 | 52 | 1011.3 |
| 20260503195203 | 20 | 301 | 3.2 | 12.9 | 0.00 | 0.00 | 0.00 | 53 | 1011.3 |
| 20260503195103 | 20 | 302 | 3.2 | 12.9 | 0.00 | 0.00 | 0.00 | 53 | 1011.3 |
| 20260503195016 | 20 | 302 | 3.2 | 11.3 | 0.00 | 0.00 | 0.00 | 52 | 1011.2 |
| 20260503195003 | 20 | 302 | 3.2 | 12.9 | 0.00 | 0.00 | 0.00 | 53 | 1011.2 |
| 20260503194903 | 20 | 299 | 3.2 | 12.9 | 0.00 | 0.00 | 0.00 | 54 | 1011.3 |
| 20260503194703 | 20 | 297 | 3.2 | 12.9 | 0.00 | 0.00 | 0.00 | 52 | 1011.3 |
| 20260503194603 | 20 | 298 | 3.2 | 12.9 | 0.00 | 0.00 | 0.00 | 52 | 1011.2 |
| 20260503194503 | 21 | 301 | 3.2 | 12.9 | 0.00 | 0.00 | 0.00 | 51 | 1011.3 |
| 20260503194403 | 21 | 303 | 3.2 | 12.9 | 0.00 | 0.00 | 0.00 | 52 | 1011.3 |
| 20260503194303 | 21 | 305 | 3.2 | 12.9 | 0.00 | 0.00 | 0.00 | 52 | 1011.3 |
| 20260503194217 | 21 | 308 | 3.2 | 12.9 | 0.00 | 0.00 | 0.00 | 52 | 1011.2 |
| 20260503194203 | 21 | 309 | 3.2 | 12.9 | 0.00 | 0.00 | 0.00 | 52 | 1011.2 |
| 20260503194103 | 21 | 309 | 3.2 | 12.9 | 0.00 | 0.00 | 0.00 | 51 | 1011.3 |
| 20260503193903 | 21 | 312 | 3.2 | 11.3 | 0.00 | 0.00 | 0.00 | 51 | 1011.3 |
| 20260503193818 | 21 | 314 | 3.2 | 11.3 | 0.00 | 0.00 | 0.00 | 51 | 1011.1 |
| 20260503193803 | 21 | 313 | 3.2 | 11.3 | 0.00 | 0.00 | 0.00 | 52 | 1011.1 |
| 20260503193703 | 21 | 312 | 3.2 | 11.3 | 0.00 | 0.00 | 0.00 | 51 | 1011.2 |
| 20260503193503 | 21 | 308 | 3.2 | 11.3 | 0.00 | 0.00 | 0.00 | 52 | 1011.2 |
| 20260503193403 | 21 | 307 | 3.2 | 11.3 | 0.00 | 0.00 | 0.00 | 51 | 1011.2 |
| 20260503193303 | 21 | 307 | 3.2 | 11.3 | 0.00 | 0.00 | 0.00 | 50 | 1011.2 |
| 20260503193203 | 21 | 307 | 3.2 | 11.3 | 0.00 | 0.00 | 0.00 | 52 | 1011.3 |
| 20260503193103 | 21 | 307 | 3.2 | 11.3 | 0.00 | 0.00 | 0.00 | 53 | 1011.2 |
| 20260503193003 | 21 | 305 | 3.2 | 11.3 | 0.00 | 0.00 | 0.00 | 53 | 1011.2 |
| 20260503192903 | 21 | 305 | 3.2 | 11.3 | 0.00 | 0.00 | 0.00 | 51 | 1011.2 |
| 20260503192817 | 21 | 306 | 3.2 | 11.3 | 0.00 | 0.00 | 0.00 | 52 | 1011.2 |
| 20260503192803 | 21 | 305 | 3.2 | 11.3 | 0.00 | 0.00 | 0.00 | 52 | 1011.2 |
| 20260503192703 | 21 | 306 | 3.2 | 11.3 | 0.00 | 0.00 | 0.00 | 52 | 1011.1 |
| 20260503192617 | 21 | 307 | 3.2 | 11.3 | 0.00 | 0.00 | 0.00 | 52 | 1011.2 |
| 20260503192305 | 21 | 302 | 3.2 | 11.3 | 0.00 | 0.00 | 0.00 | 52 | 1011.1 |
| 20260503192203 | 21 | 300 | 4.8 | 11.3 | 0.00 | 0.00 | 0.00 | 53 | 1011.2 |
| 20260503192103 | 21 | 304 | 4.8 | 11.3 | 0.00 | 0.00 | 0.00 | 52 | 1011.1 |
| 20260503192003 | 21 | 306 | 4.8 | 11.3 | 0.00 | 0.00 | 0.00 | 52 | 1011.1 |
| 20260503191903 | 21 | 305 | 3.2 | 11.3 | 0.00 | 0.00 | 0.00 | 52 | 1011.1 |
| 20260503191803 | 21 | 304 | 3.2 | 11.3 | 0.00 | 0.00 | 0.00 | 51 | 1011.2 |
| 20260503191703 | 22 | 304 | 3.2 | 11.3 | 0.00 | 0.00 | 0.00 | 51 | 1011.2 |
| 20260503191603 | 22 | 305 | 3.2 | 11.3 | 0.00 | 0.00 | 0.00 | 52 | 1011.3 |
| 20260503191503 | 22 | 308 | 3.2 | 11.3 | 0.00 | 0.00 | 0.00 | 52 | 1011.3 |
| 20260503191403 | 22 | 309 | 3.2 | 11.3 | 0.00 | 0.00 | 0.00 | 51 | 1011.2 |
| 20260503191303 | 22 | 310 | 3.2 | 11.3 | 0.00 | 0.00 | 0.00 | 50 | 1011.2 |
| 20260503191103 | 22 | 312 | 3.2 | 11.3 | 0.00 | 0.00 | 0.00 | 51 | 1011.3 |
| 20260503191003 | 22 | 313 | 3.2 | 11.3 | 0.00 | 0.00 | 0.00 | 54 | 1011.3 |
| 20260503190903 | 22 | 315 | 3.2 | 11.3 | 0.00 | 0.00 | 0.00 | 51 | 1011.2 |
| 20260503190703 | 22 | 316 | 3.2 | 11.3 | 0.00 | 0.00 | 0.00 | 51 | 1011.2 |
| 20260503190603 | 22 | 315 | 3.2 | 11.3 | 0.00 | 0.00 | 0.00 | 51 | 1011.2 |
| 20260503190503 | 22 | 315 | 3.2 | 11.3 | 0.00 | 0.00 | 0.00 | 50 | 1011.1 |
| 20260503190403 | 22 | 316 | 3.2 | 11.3 | 0.00 | 0.00 | 0.00 | 51 | 1011.1 |
| 20260503190303 | 22 | 315 | 3.2 | 11.3 | 0.00 | 0.00 | 0.00 | 53 | 1011.1 |
| 20260503190204 | 22 | 313 | 3.2 | 8.0 | 0.00 | 0.00 | 0.00 | 51 | 1011.2 |
| 20260503190103 | 22 | 307 | 3.2 | 6.4 | 0.00 | 0.00 | 0.00 | 52 | 1011.2 |
| 20260503190018 | 22 | 307 | 3.2 | 8.0 | 0.00 | 0.00 | 0.00 | 53 | 1011.3 |
| 20260503190003 | 22 | 306 | 3.2 | 11.3 | 0.00 | 0.00 | 0.00 | 53 | 1011.3 |
| 20260503185903 | 22 | 303 | 3.2 | 11.3 | 0.00 | 0.00 | 0.00 | 54 | 1011.4 |
| 20260503185817 | 22 | 303 | 3.2 | 11.3 | 0.00 | 0.00 | 0.00 | 55 | 1011.3 |
| 20260503185703 | 21 | 303 | 3.2 | 11.3 | 0.00 | 0.00 | 0.00 | 53 | 1011.5 |
| 20260503185517 | 21 | 307 | 3.2 | 11.3 | 0.00 | 0.00 | 0.00 | 54 | 1011.5 |
| 20260503185503 | 21 | 308 | 3.2 | 11.3 | 0.00 | 0.00 | 0.00 | 54 | 1011.5 |
| 20260503185404 | 21 | 307 | 3.2 | 11.3 | 0.00 | 0.00 | 0.00 | 53 | 1011.5 |
| 20260503185217 | 21 | 309 | 3.2 | 11.3 | 0.00 | 0.00 | 0.00 | 54 | 1011.5 |
| 20260503185204 | 21 | 309 | 3.2 | 11.3 | 0.00 | 0.00 | 0.00 | 53 | 1011.5 |
| 20260503185103 | 21 | 311 | 3.2 | 11.3 | 0.00 | 0.00 | 0.00 | 53 | 1011.6 |
| 20260503184903 | 21 | 315 | 1.6 | 6.4 | 0.00 | 0.00 | 0.00 | 53 | 1011.5 |
| 20260503184803 | 21 | 316 | 1.6 | 6.4 | 0.00 | 0.00 | 0.00 | 54 | 1011.5 |
| 20260503184703 | 21 | 313 | 3.2 | 6.4 | 0.00 | 0.00 | 0.00 | 55 | 1011.6 |
| 20260503184603 | 21 | 313 | 3.2 | 8.0 | 0.00 | 0.00 | 0.00 | 54 | 1011.6 |
| 20260503184503 | 21 | 308 | 3.2 | 8.0 | 0.00 | 0.00 | 0.00 | 56 | 1011.6 |
| 20260503184403 | 21 | 307 | 3.2 | 9.7 | 0.00 | 0.00 | 0.00 | 56 | 1011.5 |
| 20260503184303 | 21 | 305 | 3.2 | 9.7 | 0.00 | 0.00 | 0.00 | 55 | 1011.6 |
| 20260503184203 | 21 | 305 | 3.2 | 9.7 | 0.00 | 0.00 | 0.00 | 56 | 1011.6 |
| 20260503184104 | 21 | 304 | 3.2 | 9.7 | 0.00 | 0.00 | 0.00 | 56 | 1011.5 |
| 20260503184004 | 21 | 303 | 3.2 | 9.7 | 0.00 | 0.00 | 0.00 | 56 | 1011.6 |
| 20260503183903 | 21 | 302 | 3.2 | 9.7 | 0.00 | 0.00 | 0.00 | 54 | 1011.6 |
| 20260503183803 | 21 | 301 | 3.2 | 9.7 | 0.00 | 0.00 | 0.00 | 54 | 1011.5 |
| 20260503183718 | 21 | 303 | 3.2 | 9.7 | 0.00 | 0.00 | 0.00 | 54 | 1011.5 |
| 20260503183703 | 21 | 304 | 3.2 | 9.7 | 0.00 | 0.00 | 0.00 | 54 | 1011.5 |
| 20260503183603 | 21 | 303 | 3.2 | 9.7 | 0.00 | 0.00 | 0.00 | 54 | 1011.5 |
| 20260503183403 | 21 | 304 | 3.2 | 8.0 | 0.00 | 0.00 | 0.00 | 55 | 1011.6 |
| 20260503183304 | 21 | 307 | 3.2 | 8.0 | 0.00 | 0.00 | 0.00 | 55 | 1011.6 |
| 20260503183203 | 21 | 307 | 3.2 | 8.0 | 0.00 | 0.00 | 0.00 | 56 | 1011.6 |
| 20260503183103 | 21 | 306 | 3.2 | 8.0 | 0.00 | 0.00 | 0.00 | 56 | 1011.6 |
| 20260503183003 | 21 | 306 | 3.2 | 8.0 | 0.00 | 0.00 | 0.00 | 55 | 1011.5 |
| 20260503182917 | 21 | 308 | 3.2 | 8.0 | 0.00 | 0.00 | 0.00 | 54 | 1011.6 |
| 20260503182903 | 21 | 308 | 3.2 | 8.0 | 0.00 | 0.00 | 0.00 | 54 | 1011.5 |
| 20260503182803 | 21 | 310 | 3.2 | 8.0 | 0.00 | 0.00 | 0.00 | 54 | 1011.6 |
| 20260503182718 | 21 | 309 | 3.2 | 6.4 | 0.00 | 0.00 | 0.00 | 55 | 1011.6 |
| 20260503182603 | 21 | 306 | 3.2 | 8.0 | 0.00 | 0.00 | 0.00 | 55 | 1011.6 |
| 20260503182403 | 21 | 312 | 3.2 | 8.0 | 0.00 | 0.00 | 0.00 | 56 | 1011.6 |
| 20260503182305 | 21 | 316 | 3.2 | 8.0 | 0.00 | 0.00 | 0.00 | 55 | 1011.7 |
| 20260503182203 | 21 | 317 | 3.2 | 8.0 | 0.00 | 0.00 | 0.00 | 55 | 1011.6 |
| 20260503182103 | 21 | 321 | 3.2 | 8.0 | 0.00 | 0.00 | 0.00 | 56 | 1011.6 |
| 20260503182003 | 21 | 323 | 3.2 | 8.0 | 0.00 | 0.00 | 0.00 | 56 | 1011.6 |
| 20260503181903 | 21 | 323 | 3.2 | 8.0 | 0.00 | 0.00 | 0.00 | 56 | 1011.6 |
| 20260503181803 | 21 | 325 | 3.2 | 8.0 | 0.00 | 0.00 | 0.00 | 55 | 1011.6 |
| 20260503181703 | 21 | 328 | 3.2 | 8.0 | 0.00 | 0.00 | 0.00 | 56 | 1011.6 |
| 20260503181603 | 21 | 332 | 3.2 | 6.4 | 0.00 | 0.00 | 0.00 | 57 | 1011.6 |
| 20260503181504 | 21 | 330 | 3.2 | 6.4 | 0.00 | 0.00 | 0.00 | 55 | 1011.7 |
| 20260503181403 | 21 | 328 | 3.2 | 6.4 | 0.00 | 0.00 | 0.00 | 54 | 1011.7 |
| 20260503181304 | 21 | 326 | 3.2 | 6.4 | 0.00 | 0.00 | 0.00 | 54 | 1011.6 |
| 20260503181203 | 21 | 327 | 3.2 | 6.4 | 0.00 | 0.00 | 0.00 | 53 | 1011.7 |
| 20260503181103 | 21 | 326 | 3.2 | 6.4 | 0.00 | 0.00 | 0.00 | 53 | 1011.7 |
| 20260503181003 | 21 | 324 | 3.2 | 6.4 | 0.00 | 0.00 | 0.00 | 54 | 1011.6 |
| 20260503180903 | 21 | 320 | 3.2 | 6.4 | 0.00 | 0.00 | 0.00 | 54 | 1011.5 |
| 20260503180803 | 21 | 318 | 3.2 | 6.4 | 0.00 | 0.00 | 0.00 | 53 | 1011.6 |
| 20260503180718 | 22 | 316 | 3.2 | 6.4 | 0.00 | 0.00 | 0.00 | 52 | 1011.7 |
| 20260503180703 | 22 | 316 | 3.2 | 6.4 | 0.00 | 0.00 | 0.00 | 52 | 1011.7 |
| 20260503180604 | 22 | 315 | 1.6 | 6.4 | 0.00 | 0.00 | 0.00 | 51 | 1011.6 |
| 20260503180403 | 22 | 313 | 1.6 | 4.8 | 0.00 | 0.00 | 0.00 | 52 | 1011.6 |
| 20260503180303 | 22 | 308 | 1.6 | 4.8 | 0.00 | 0.00 | 0.00 | 51 | 1011.6 |
| 20260503180203 | 22 | 300 | 1.6 | 4.8 | 0.00 | 0.00 | 0.00 | 52 | 1011.6 |
| 20260503180103 | 22 | 299 | 3.2 | 4.8 | 0.00 | 0.00 | 0.00 | 54 | 1011.7 |
| 20260503180008 | 22 | 303 | 3.2 | 6.4 | 0.00 | 0.00 | 0.00 | 54 | 1011.6 |
| 20260503175903 | 22 | 308 | 3.2 | 6.4 | 0.00 | 0.00 | 0.00 | 52 | 1011.6 |
| 20260503175803 | 22 | 311 | 3.2 | 6.4 | 0.00 | 0.00 | 0.00 | 53 | 1011.6 |
| 20260503175703 | 22 | 311 | 3.2 | 6.4 | 0.00 | 0.00 | 0.00 | 53 | 1011.6 |
| 20260503175604 | 22 | 309 | 3.2 | 6.4 | 0.00 | 0.00 | 0.00 | 53 | 1011.6 |
| 20260503175519 | 22 | 308 | 3.2 | 6.4 | 0.00 | 0.00 | 0.00 | 52 | 1011.5 |
| 20260503175403 | 22 | 307 | 3.2 | 6.4 | 0.00 | 0.00 | 0.00 | 52 | 1011.6 |
| 20260503175318 | 22 | 307 | 3.2 | 6.4 | 0.00 | 0.00 | 0.00 | 51 | 1011.5 |
| 20260503175203 | 22 | 308 | 1.6 | 6.4 | 0.00 | 0.00 | 0.00 | 50 | 1011.5 |
| 20260503175003 | 22 | 304 | 1.6 | 4.8 | 0.00 | 0.00 | 0.00 | 50 | 1011.6 |
| 20260503174904 | 22 | 303 | 1.6 | 4.8 | 0.00 | 0.00 | 0.00 | 51 | 1011.5 |
| 20260503174817 | 22 | 301 | 1.6 | 4.8 | 0.00 | 0.00 | 0.00 | 50 | 1011.6 |
| 20260503174803 | 22 | 300 | 1.6 | 4.8 | 0.00 | 0.00 | 0.00 | 50 | 1011.6 |
| 20260503174718 | 22 | 301 | 1.6 | 4.8 | 0.00 | 0.00 | 0.00 | 50 | 1011.6 |
| 20260503174703 | 22 | 301 | 1.6 | 4.8 | 0.00 | 0.00 | 0.00 | 51 | 1011.6 |
| 20260503174403 | 22 | 308 | 3.2 | 6.4 | 0.00 | 0.00 | 0.00 | 52 | 1011.7 |
| 20260503174303 | 22 | 307 | 3.2 | 6.4 | 0.00 | 0.00 | 0.00 | 51 | 1011.7 |
| 20260503174203 | 22 | 306 | 3.2 | 6.4 | 0.00 | 0.00 | 0.00 | 50 | 1011.6 |
| 20260503174103 | 22 | 304 | 3.2 | 6.4 | 0.00 | 0.00 | 0.00 | 50 | 1011.7 |
| 20260503174003 | 22 | 302 | 3.2 | 6.4 | 0.00 | 0.00 | 0.00 | 49 | 1011.7 |
| 20260503173918 | 23 | 295 | 3.2 | 6.4 | 0.00 | 0.00 | 0.00 | 49 | 1011.7 |
| 20260503173903 | 23 | 294 | 3.2 | 6.4 | 0.00 | 0.00 | 0.00 | 49 | 1011.7 |
| 20260503173803 | 23 | 302 | 3.2 | 8.0 | 0.00 | 0.00 | 0.00 | 48 | 1011.8 |
| 20260503173618 | 23 | 307 | 3.2 | 8.0 | 0.00 | 0.00 | 0.00 | 47 | 1011.7 |
| 20260503173604 | 23 | 304 | 3.2 | 8.0 | 0.00 | 0.00 | 0.00 | 48 | 1011.7 |
| 20260503173517 | 23 | 295 | 3.2 | 8.0 | 0.00 | 0.00 | 0.00 | 48 | 1011.8 |
| 20260503173503 | 23 | 293 | 3.2 | 8.0 | 0.00 | 0.00 | 0.00 | 48 | 1011.8 |
| 20260503173417 | 23 | 290 | 3.2 | 8.0 | 0.00 | 0.00 | 0.00 | 46 | 1011.7 |
| 20260503173103 | 24 | 127 | 1.6 | 8.0 | 0.00 | 0.00 | 0.00 | 45 | 1011.7 |
| 20260503173004 | 24 | 78 | 1.6 | 8.0 | 0.00 | 0.00 | 0.00 | 45 | 1011.8 |
| 20260503172903 | 24 | 8 | 1.6 | 8.0 | 0.00 | 0.00 | 0.00 | 42 | 1011.7 |
| 20260503172819 | 24 | 332 | 1.6 | 8.0 | 0.00 | 0.00 | 0.00 | 42 | 1011.6 |
| 20260503172803 | 24 | 299 | 1.6 | 4.8 | 0.00 | 0.00 | 0.00 | 42 | 1011.7 |
| 20260503172703 | 24 | 295 | 0.0 | 3.2 | 0.00 | 0.00 | 0.00 | 43 | 1011.7 |
| 20260503172504 | 24 | 296 | 1.6 | 3.2 | 0.00 | 0.00 | 0.00 | 46 | 1011.7 |
| 20260503172403 | 24 | 299 | 1.6 | 3.2 | 0.00 | 0.00 | 0.00 | 45 | 1011.7 |
| 20260503172305 | 24 | 311 | 1.6 | 3.2 | 0.00 | 0.00 | 0.00 | 44 | 1011.6 |
| 20260503172203 | 24 | 100 | 1.6 | 6.4 | 0.00 | 0.00 | 0.00 | 44 | 1011.7 |
| 20260503172117 | 23 | 111 | 1.6 | 6.4 | 0.00 | 0.00 | 0.00 | 46 | 1011.7 |
| 20260503172104 | 23 | 108 | 1.6 | 6.4 | 0.00 | 0.00 | 0.00 | 46 | 1011.7 |
| 20260503172004 | 23 | 107 | 1.6 | 6.4 | 0.00 | 0.00 | 0.00 | 45 | 1011.7 |
| 20260503171803 | 23 | 111 | 3.2 | 9.7 | 0.00 | 0.00 | 0.00 | 45 | 1011.6 |
| 20260503171703 | 23 | 117 | 3.2 | 9.7 | 0.00 | 0.00 | 0.00 | 46 | 1011.7 |
| 20260503171603 | 23 | 121 | 3.2 | 9.7 | 0.00 | 0.00 | 0.00 | 45 | 1011.6 |
| 20260503171503 | 23 | 121 | 3.2 | 9.7 | 0.00 | 0.00 | 0.00 | 44 | 1011.6 |
| 20260503171403 | 23 | 121 | 3.2 | 9.7 | 0.00 | 0.00 | 0.00 | 43 | 1011.6 |
| 20260503171303 | 23 | 122 | 3.2 | 9.7 | 0.00 | 0.00 | 0.00 | 43 | 1011.6 |
| 20260503171203 | 23 | 123 | 3.2 | 9.7 | 0.00 | 0.00 | 0.00 | 43 | 1011.7 |
| 20260503171017 | 23 | 123 | 3.2 | 9.7 | 0.00 | 0.00 | 0.00 | 44 | 1011.6 |
| 20260503171004 | 23 | 125 | 3.2 | 9.7 | 0.00 | 0.00 | 0.00 | 44 | 1011.6 |
| 20260503170904 | 23 | 131 | 3.2 | 9.7 | 0.00 | 0.00 | 0.00 | 45 | 1011.6 |
| 20260503170704 | 23 | 125 | 1.6 | 9.7 | 0.00 | 0.00 | 0.00 | 44 | 1011.6 |
| 20260503170604 | 23 | 110 | 1.6 | 9.7 | 0.00 | 0.00 | 0.00 | 46 | 1011.7 |
| 20260503170516 | 23 | 97 | 1.6 | 9.7 | 0.00 | 0.00 | 0.00 | 47 | 1011.7 |
| 20260503170503 | 23 | 94 | 1.6 | 9.7 | 0.00 | 0.00 | 0.00 | 47 | 1011.7 |
| 20260503170403 | 23 | 92 | 1.6 | 9.7 | 0.00 | 0.00 | 0.00 | 45 | 1011.6 |
| 20260503170203 | 23 | 95 | 3.2 | 9.7 | 0.00 | 0.00 | 0.00 | 45 | 1011.6 |
| 20260503170117 | 23 | 87 | 3.2 | 9.7 | 0.00 | 0.00 | 0.00 | 46 | 1011.6 |
| 20260503170103 | 23 | 88 | 3.2 | 9.7 | 0.00 | 0.00 | 0.00 | 45 | 1011.6 |
| 20260503160204 | 18 | 95 | 1.6 | 8.0 | 0.00 | 0.00 | 0.00 | 76 | 1012.1 |
| 20260503160104 | 18 | 93 | 1.6 | 8.0 | 0.00 | 0.00 | 0.00 | 76 | 1012.1 |
| 20260503151003 | 12 | 108 | 1.6 | 6.4 | 0.00 | 0.00 | 0.00 | 89 | 1012.0 |
| 20260503150903 | 12 | 105 | 1.6 | 6.4 | 0.00 | 0.00 | 0.00 | 89 | 1012.0 |
| 20260503150703 | 12 | 104 | 0.0 | 6.4 | 0.00 | 0.00 | 0.00 | 89 | 1012.0 |
| 20260503150603 | 12 | 105 | 0.0 | 6.4 | 0.00 | 0.00 | 0.00 | 89 | 1012.0 |
| 20260503150503 | 12 | 99 | 0.0 | 6.4 | 0.00 | 0.00 | 0.00 | 89 | 1012.0 |
| 20260503150403 | 12 | 96 | 0.0 | 6.4 | 0.00 | 0.00 | 0.00 | 89 | 1012.0 |
| 20260503150303 | 12 | 97 | 0.0 | 6.4 | 0.00 | 0.00 | 0.00 | 89 | 1012.0 |
| 20260503150203 | 11 | 100 | 0.0 | 6.4 | 0.00 | 0.00 | 0.00 | 89 | 1012.0 |
| 20260503140303 | 7 | 113 | 0.0 | 1.6 | 0.00 | 0.00 | 0.00 | 88 | 1011.8 |
| 20260503140203 | 7 | 113 | 0.0 | 1.6 | 0.00 | 0.00 | 0.00 | 88 | 1011.7 |
| 20260503140104 | 7 | 113 | 0.0 | 1.6 | 0.00 | 0.00 | 0.00 | 88 | 1011.8 |
| 20260503131403 | 7 | 113 | 0.0 | 1.6 | 0.00 | 0.00 | 0.00 | 88 | 1011.8 |
| 20260503131303 | 7 | 113 | 0.0 | 1.6 | 0.00 | 0.00 | 0.00 | 88 | 1011.8 |
| 20260503131203 | 7 | 113 | 0.0 | 1.6 | 0.00 | 0.00 | 0.00 | 88 | 1011.8 |
| 20260503131103 | 7 | 113 | 0.0 | 1.6 | 0.00 | 0.00 | 0.00 | 88 | 1011.8 |
| 20260503131003 | 7 | 113 | 0.0 | 1.6 | 0.00 | 0.00 | 0.00 | 88 | 1011.8 |
| 20260503130904 | 7 | 113 | 0.0 | 1.6 | 0.00 | 0.00 | 0.00 | 88 | 1011.9 |
| 20260503130817 | 7 | 113 | 0.0 | 1.6 | 0.00 | 0.00 | 0.00 | 88 | 1011.8 |
| 20260503130803 | 7 | 113 | 0.0 | 1.6 | 0.00 | 0.00 | 0.00 | 88 | 1011.8 |
| 20260503130703 | 7 | 113 | 0.0 | 1.6 | 0.00 | 0.00 | 0.00 | 88 | 1011.8 |
| 20260503130503 | 7 | 113 | 0.0 | 3.2 | 0.00 | 0.00 | 0.00 | 88 | 1011.8 |
| 20260503130403 | 7 | 113 | 0.0 | 3.2 | 0.00 | 0.00 | 0.00 | 88 | 1011.9 |
| 20260503130303 | 7 | 113 | 0.0 | 3.2 | 0.00 | 0.00 | 0.00 | 88 | 1011.9 |
| 20260503130217 | 7 | 113 | 0.0 | 3.2 | 0.00 | 0.00 | 0.00 | 88 | 1011.9 |
| 20260503130203 | 7 | 113 | 0.0 | 3.2 | 0.00 | 0.00 | 0.00 | 88 | 1011.9 |
| 20260503130103 | 7 | 113 | 0.0 | 3.2 | 0.00 | 0.00 | 0.00 | 88 | 1012.0 |
| 20260503110803 | 7 | 99 | 0.0 | 3.2 | 0.00 | 0.00 | 0.00 | 87 | 1012.2 |
| 20260503110719 | 7 | 102 | 0.0 | 3.2 | 0.00 | 0.00 | 0.00 | 87 | 1012.2 |
| 20260503110703 | 7 | 100 | 0.0 | 3.2 | 0.00 | 0.00 | 0.00 | 87 | 1012.2 |
| 20260503110603 | 7 | 97 | 0.0 | 1.6 | 0.00 | 0.00 | 0.00 | 87 | 1012.2 |
| 20260503110403 | 7 | 113 | 0.0 | 1.6 | 0.00 | 0.00 | 0.00 | 88 | 1012.2 |
| 20260503110303 | 7 | 113 | 0.0 | 1.6 | 0.00 | 0.00 | 0.00 | 87 | 1012.2 |
| 20260503110203 | 7 | 113 | 0.0 | 1.6 | 0.00 | 0.00 | 0.00 | 87 | 1012.3 |
| 20260503100220 | 7 | 113 | 1.6 | 3.2 | 0.00 | 0.00 | 0.00 | 87 | 1012.4 |
| 20260503100203 | 7 | 114 | 0.0 | 3.2 | 0.00 | 0.00 | 0.00 | 87 | 1012.3 |
| 20260503100103 | 7 | 115 | 0.0 | 3.2 | 0.00 | 0.00 | 0.00 | 87 | 1012.3 |
| 20260503090503 | 8 | 116 | 0.0 | 1.6 | 0.00 | 0.00 | 0.00 | 87 | 1012.8 |
| 20260503090403 | 8 | 116 | 0.0 | 1.6 | 0.00 | 0.00 | 0.00 | 87 | 1012.8 |
| 20260503090303 | 8 | 116 | 0.0 | 1.6 | 0.00 | 0.00 | 0.00 | 87 | 1012.8 |
| 20260503081603 | 8 | 0 | 0.0 | 0.0 | 0.00 | 0.00 | 0.00 | 87 | 1012.8 |
| 20260503081403 | 8 | 0 | 0.0 | 0.0 | 0.00 | 0.00 | 0.00 | 87 | 1012.8 |
| 20260503081303 | 8 | 0 | 0.0 | 0.0 | 0.00 | 0.00 | 0.00 | 87 | 1012.8 |
| 20260503081103 | 8 | 0 | 0.0 | 0.0 | 0.00 | 0.00 | 0.00 | 87 | 1012.8 |
| 20260503081003 | 8 | 0 | 0.0 | 0.0 | 0.00 | 0.00 | 0.00 | 87 | 1012.9 |
| 20260503080903 | 8 | 0 | 0.0 | 0.0 | 0.00 | 0.00 | 0.00 | 87 | 1012.8 |
| 20260503080804 | 8 | 0 | 0.0 | 0.0 | 0.00 | 0.00 | 0.00 | 87 | 1012.9 |
| 20260503080703 | 8 | 0 | 0.0 | 0.0 | 0.00 | 0.00 | 0.00 | 87 | 1012.8 |
| 20260503080603 | 8 | 0 | 0.0 | 0.0 | 0.00 | 0.00 | 0.00 | 87 | 1012.8 |
| 20260503080503 | 8 | 0 | 0.0 | 0.0 | 0.00 | 0.00 | 0.00 | 87 | 1012.9 |
| 20260503080403 | 8 | 0 | 0.0 | 0.0 | 0.00 | 0.00 | 0.00 | 87 | 1012.8 |
| 20260503080303 | 8 | 0 | 0.0 | 0.0 | 0.00 | 0.00 | 0.00 | 87 | 1012.8 |
| 20260503080203 | 8 | 0 | 0.0 | 0.0 | 0.00 | 0.00 | 0.00 | 87 | 1012.9 |
| 20260503072903 | 8 | 0 | 0.0 | 0.0 | 0.00 | 0.00 | 0.00 | 87 | 1012.9 |
| 20260503072803 | 8 | 0 | 0.0 | 0.0 | 0.00 | 0.00 | 0.00 | 87 | 1012.9 |
| 20260503072703 | 8 | 0 | 0.0 | 0.0 | 0.00 | 0.00 | 0.00 | 87 | 1012.9 |
| 20260503072504 | 8 | 0 | 0.0 | 0.0 | 0.00 | 0.00 | 0.00 | 87 | 1012.8 |
| 20260503072403 | 8 | 0 | 0.0 | 0.0 | 0.00 | 0.00 | 0.00 | 87 | 1012.8 |
| 20260503072318 | 8 | 0 | 0.0 | 0.0 | 0.00 | 0.00 | 0.00 | 87 | 1012.9 |
| 20260503072203 | 8 | 0 | 0.0 | 0.0 | 0.00 | 0.00 | 0.00 | 87 | 1012.9 |
| 20260503072119 | 8 | 0 | 0.0 | 0.0 | 0.00 | 0.00 | 0.00 | 87 | 1012.9 |
| 20260503072004 | 8 | 0 | 0.0 | 0.0 | 0.00 | 0.00 | 0.00 | 87 | 1012.8 |
| 20260503071803 | 8 | 0 | 0.0 | 0.0 | 0.00 | 0.00 | 0.00 | 87 | 1012.8 |
| 20260503071703 | 8 | 0 | 0.0 | 0.0 | 0.00 | 0.00 | 0.00 | 87 | 1012.8 |
| 20260503071605 | 8 | 0 | 0.0 | 0.0 | 0.00 | 0.00 | 0.00 | 87 | 1012.9 |
| 20260503071504 | 8 | 0 | 0.0 | 0.0 | 0.00 | 0.00 | 0.00 | 87 | 1012.8 |
| 20260503071417 | 8 | 0 | 0.0 | 0.0 | 0.00 | 0.00 | 0.00 | 87 | 1012.8 |
| 20260503071303 | 8 | 116 | 0.0 | 1.6 | 0.00 | 0.00 | 0.00 | 87 | 1012.8 |
| 20260503071103 | 8 | 116 | 0.0 | 1.6 | 0.00 | 0.00 | 0.00 | 87 | 1012.8 |
| 20260503071004 | 8 | 116 | 0.0 | 1.6 | 0.00 | 0.00 | 0.00 | 87 | 1012.8 |
| 20260503070903 | 8 | 116 | 0.0 | 1.6 | 0.00 | 0.00 | 0.00 | 87 | 1012.8 |
| 20260503070803 | 8 | 116 | 0.0 | 1.6 | 0.00 | 0.00 | 0.00 | 87 | 1012.7 |
| 20260503070703 | 8 | 116 | 0.0 | 1.6 | 0.00 | 0.00 | 0.00 | 87 | 1012.8 |
| 20260503070603 | 8 | 98 | 0.0 | 3.2 | 0.00 | 0.00 | 0.00 | 87 | 1012.8 |
| 20260503070403 | 8 | 97 | 0.0 | 3.2 | 0.00 | 0.00 | 0.00 | 87 | 1012.8 |
| 20260503070303 | 8 | 96 | 0.0 | 3.2 | 0.00 | 0.00 | 0.00 | 87 | 1012.8 |
| 20260503070218 | 8 | 96 | 0.0 | 3.2 | 0.00 | 0.00 | 0.00 | 87 | 1012.8 |
| 20260503070203 | 8 | 96 | 0.0 | 3.2 | 0.00 | 0.00 | 0.00 | 87 | 1012.7 |
| 20260503060303 | 9 | 112 | 1.6 | 3.2 | 0.00 | 0.00 | 0.00 | 87 | 1012.9 |
| 20260503060204 | 9 | 112 | 1.6 | 3.2 | 0.00 | 0.00 | 0.00 | 87 | 1012.8 |
| 20260503060103 | 9 | 112 | 0.0 | 3.2 | 0.00 | 0.00 | 0.00 | 87 | 1012.8 |
| 20260503055104 | 9 | 111 | 0.0 | 1.6 | 0.00 | 0.00 | 0.00 | 87 | 1012.9 |
| 20260503055003 | 9 | 111 | 0.0 | 1.6 | 0.00 | 0.00 | 0.00 | 87 | 1012.9 |
| 20260503054903 | 9 | 111 | 0.0 | 1.6 | 0.00 | 0.00 | 0.00 | 87 | 1012.9 |
| 20260503054803 | 9 | 111 | 0.0 | 1.6 | 0.00 | 0.00 | 0.00 | 87 | 1012.9 |
| 20260503054603 | 9 | 111 | 0.0 | 1.6 | 0.00 | 0.00 | 0.00 | 87 | 1012.8 |
| 20260503054503 | 9 | 111 | 0.0 | 1.6 | 0.00 | 0.00 | 0.00 | 87 | 1012.9 |
| 20260503054403 | 9 | 111 | 0.0 | 1.6 | 0.00 | 0.00 | 0.00 | 87 | 1012.9 |
| 20260503054203 | 9 | 111 | 0.0 | 1.6 | 0.00 | 0.00 | 0.00 | 87 | 1012.9 |
| 20260503054116 | 9 | 111 | 0.0 | 1.6 | 0.00 | 0.00 | 0.00 | 87 | 1012.9 |
| 20260503054103 | 9 | 111 | 0.0 | 1.6 | 0.00 | 0.00 | 0.00 | 87 | 1012.8 |
| 20260503054003 | 9 | 111 | 0.0 | 1.6 | 0.00 | 0.00 | 0.00 | 87 | 1012.9 |
| 20260503053803 | 9 | 111 | 0.0 | 1.6 | 0.00 | 0.00 | 0.00 | 87 | 1012.9 |
| 20260503053703 | 9 | 111 | 0.0 | 1.6 | 0.00 | 0.00 | 0.00 | 87 | 1012.9 |
| 20260503053603 | 9 | 111 | 0.0 | 1.6 | 0.00 | 0.00 | 0.00 | 87 | 1012.9 |
| 20260503053503 | 9 | 111 | 0.0 | 1.6 | 0.00 | 0.00 | 0.00 | 87 | 1012.8 |
| 20260503053303 | 9 | 111 | 0.0 | 1.6 | 0.00 | 0.00 | 0.00 | 87 | 1012.9 |
| 20260503053203 | 9 | 111 | 0.0 | 1.6 | 0.00 | 0.00 | 0.00 | 87 | 1012.8 |
| 20260503053104 | 9 | 111 | 0.0 | 1.6 | 0.00 | 0.00 | 0.00 | 87 | 1012.9 |
| 20260503053003 | 9 | 111 | 0.0 | 1.6 | 0.00 | 0.00 | 0.00 | 87 | 1012.9 |
| 20260503052903 | 9 | 111 | 0.0 | 1.6 | 0.00 | 0.00 | 0.00 | 87 | 1012.9 |
| 20260503052804 | 9 | 111 | 0.0 | 1.6 | 0.00 | 0.00 | 0.00 | 87 | 1012.9 |
| 20260503052703 | 9 | 111 | 0.0 | 1.6 | 0.00 | 0.00 | 0.00 | 87 | 1012.8 |
| 20260503052618 | 9 | 111 | 0.0 | 1.6 | 0.00 | 0.00 | 0.00 | 87 | 1012.8 |
| 20260503052603 | 9 | 111 | 0.0 | 1.6 | 0.00 | 0.00 | 0.00 | 87 | 1012.9 |
| 20260503052503 | 9 | 0 | 0.0 | 0.0 | 0.00 | 0.00 | 0.00 | 87 | 1012.8 |
| 20260503052305 | 9 | 0 | 0.0 | 0.0 | 0.00 | 0.00 | 0.00 | 87 | 1012.8 |
| 20260503052203 | 9 | 0 | 0.0 | 0.0 | 0.00 | 0.00 | 0.00 | 87 | 1012.7 |
| 20260503052103 | 10 | 0 | 0.0 | 0.0 | 0.00 | 0.00 | 0.00 | 87 | 1012.8 |
| 20260503052003 | 10 | 0 | 0.0 | 0.0 | 0.00 | 0.00 | 0.00 | 87 | 1012.8 |
| 20260503051903 | 10 | 0 | 0.0 | 0.0 | 0.00 | 0.00 | 0.00 | 87 | 1012.7 |
| 20260503051803 | 10 | 0 | 0.0 | 0.0 | 0.00 | 0.00 | 0.00 | 87 | 1012.8 |
| 20260503051703 | 10 | 0 | 0.0 | 0.0 | 0.00 | 0.00 | 0.00 | 87 | 1012.8 |
| 20260503051503 | 10 | 0 | 0.0 | 0.0 | 0.00 | 0.00 | 0.00 | 87 | 1012.7 |
| 20260503051403 | 10 | 0 | 0.0 | 0.0 | 0.00 | 0.00 | 0.00 | 87 | 1012.7 |
| 20260503051203 | 10 | 0 | 0.0 | 0.0 | 0.00 | 0.00 | 0.00 | 87 | 1012.7 |
| 20260503051103 | 10 | 0 | 0.0 | 0.0 | 0.00 | 0.00 | 0.00 | 87 | 1012.7 |
| 20260503051004 | 10 | 0 | 0.0 | 0.0 | 0.00 | 0.00 | 0.00 | 87 | 1012.7 |
| 20260503050903 | 10 | 0 | 0.0 | 0.0 | 0.00 | 0.00 | 0.00 | 87 | 1012.8 |
| 20260503050603 | 10 | 0 | 0.0 | 0.0 | 0.00 | 0.00 | 0.00 | 87 | 1012.7 |
| 20260503050503 | 10 | 0 | 0.0 | 0.0 | 0.00 | 0.00 | 0.00 | 87 | 1012.7 |
| 20260503050404 | 10 | 0 | 0.0 | 0.0 | 0.00 | 0.00 | 0.00 | 87 | 1012.7 |
| 20260503050319 | 10 | 0 | 0.0 | 0.0 | 0.00 | 0.00 | 0.00 | 87 | 1012.7 |
| 20260503050118 | 10 | 0 | 0.0 | 0.0 | 0.00 | 0.00 | 0.00 | 87 | 1012.7 |
| 20260503050005 | 10 | 0 | 0.0 | 0.0 | 0.00 | 0.00 | 0.00 | 87 | 1012.8 |
| 20260503045705 | 10 | 0 | 0.0 | 0.0 | 0.00 | 0.00 | 0.00 | 87 | 1012.7 |
| 20260503045604 | 10 | 0 | 0.0 | 0.0 | 0.00 | 0.00 | 0.00 | 87 | 1012.8 |
| 20260503045504 | 10 | 0 | 0.0 | 0.0 | 0.00 | 0.00 | 0.00 | 87 | 1012.7 |
| 20260503045405 | 10 | 0 | 0.0 | 0.0 | 0.00 | 0.00 | 0.00 | 87 | 1012.7 |
| 20260503045305 | 10 | 0 | 0.0 | 0.0 | 0.00 | 0.00 | 0.00 | 87 | 1012.7 |
| 20260503045103 | 10 | 0 | 0.0 | 0.0 | 0.00 | 0.00 | 0.00 | 87 | 1012.7 |
| 20260503045004 | 10 | 0 | 0.0 | 0.0 | 0.00 | 0.00 | 0.00 | 87 | 1012.7 |
| 20260503044903 | 10 | 111 | 0.0 | 1.6 | 0.00 | 0.00 | 0.00 | 87 | 1012.7 |
| 20260503044803 | 10 | 111 | 0.0 | 1.6 | 0.00 | 0.00 | 0.00 | 87 | 1012.7 |
| 20260503044703 | 10 | 111 | 0.0 | 1.6 | 0.00 | 0.00 | 0.00 | 87 | 1012.7 |
| 20260503044619 | 10 | 111 | 0.0 | 1.6 | 0.00 | 0.00 | 0.00 | 87 | 1012.7 |
| 20260503044603 | 10 | 111 | 0.0 | 1.6 | 0.00 | 0.00 | 0.00 | 87 | 1012.8 |
| 20260503044503 | 10 | 111 | 0.0 | 1.6 | 0.00 | 0.00 | 0.00 | 87 | 1012.7 |
| 20260503044305 | 10 | 111 | 0.0 | 1.6 | 0.00 | 0.00 | 0.00 | 87 | 1012.8 |
| 20260503044205 | 10 | 111 | 0.0 | 1.6 | 0.00 | 0.00 | 0.00 | 87 | 1012.7 |
| 20260503044103 | 10 | 111 | 0.0 | 1.6 | 0.00 | 0.00 | 0.00 | 87 | 1012.7 |
| 20260503044003 | 10 | 111 | 0.0 | 1.6 | 0.00 | 0.00 | 0.00 | 87 | 1012.7 |
| 20260503043905 | 10 | 111 | 0.0 | 1.6 | 0.00 | 0.00 | 0.00 | 87 | 1012.7 |
| 20260503043803 | 10 | 111 | 0.0 | 1.6 | 0.00 | 0.00 | 0.00 | 87 | 1012.8 |
| 20260503043704 | 10 | 0 | 0.0 | 0.0 | 0.00 | 0.00 | 0.00 | 87 | 1012.7 |
| 20260503043603 | 10 | 0 | 0.0 | 0.0 | 0.00 | 0.00 | 0.00 | 87 | 1012.7 |
| 20260503043505 | 10 | 0 | 0.0 | 0.0 | 0.00 | 0.00 | 0.00 | 87 | 1012.7 |
| 20260503043403 | 10 | 0 | 0.0 | 0.0 | 0.00 | 0.00 | 0.00 | 87 | 1012.7 |
| 20260503043104 | 10 | 107 | 0.0 | 3.2 | 0.00 | 0.00 | 0.00 | 87 | 1012.6 |
| 20260503043003 | 10 | 81 | 0.0 | 3.2 | 0.00 | 0.00 | 0.00 | 87 | 1012.6 |
| 20260503042903 | 10 | 310 | 0.0 | 3.2 | 0.00 | 0.00 | 0.00 | 87 | 1012.6 |
| 20260503042803 | 10 | 303 | 0.0 | 3.2 | 0.00 | 0.00 | 0.00 | 87 | 1012.6 |
| 20260503042703 | 10 | 306 | 0.0 | 3.2 | 0.00 | 0.00 | 0.00 | 87 | 1012.6 |
| 20260503042603 | 10 | 306 | 0.0 | 3.2 | 0.00 | 0.00 | 0.00 | 87 | 1012.7 |
| 20260503042503 | 10 | 307 | 0.0 | 3.2 | 0.00 | 0.00 | 0.00 | 87 | 1012.6 |
| 20260503042403 | 10 | 311 | 0.0 | 3.2 | 0.00 | 0.00 | 0.00 | 87 | 1012.6 |
| 20260503042305 | 10 | 315 | 0.0 | 3.2 | 0.00 | 0.00 | 0.00 | 87 | 1012.6 |
| 20260503042203 | 10 | 314 | 0.0 | 3.2 | 0.00 | 0.00 | 0.00 | 87 | 1012.6 |
| 20260503042103 | 10 | 310 | 0.0 | 3.2 | 0.00 | 0.00 | 0.00 | 87 | 1012.7 |
| 20260503042004 | 10 | 315 | 0.0 | 3.2 | 0.00 | 0.00 | 0.00 | 87 | 1012.6 |
| 20260503041905 | 10 | 318 | 0.0 | 3.2 | 0.00 | 0.00 | 0.00 | 87 | 1012.6 |
| 20260503041803 | 10 | 323 | 0.0 | 3.2 | 0.00 | 0.00 | 0.00 | 87 | 1012.6 |
| 20260503041705 | 10 | 338 | 0.0 | 3.2 | 0.00 | 0.00 | 0.00 | 87 | 1012.7 |
| 20260503041603 | 10 | 345 | 0.0 | 4.8 | 0.00 | 0.00 | 0.00 | 87 | 1012.7 |
| 20260503041504 | 10 | 341 | 0.0 | 4.8 | 0.00 | 0.00 | 0.00 | 87 | 1012.6 |
| 20260503041403 | 10 | 335 | 0.0 | 4.8 | 0.00 | 0.00 | 0.00 | 87 | 1012.6 |
| 20260503041304 | 10 | 310 | 1.6 | 4.8 | 0.00 | 0.00 | 0.00 | 87 | 1012.6 |
| 20260503041203 | 10 | 328 | 1.6 | 4.8 | 0.00 | 0.00 | 0.00 | 87 | 1012.6 |
| 20260503041118 | 10 | 329 | 1.6 | 4.8 | 0.00 | 0.00 | 0.00 | 87 | 1012.6 |
| 20260503041103 | 10 | 328 | 1.6 | 4.8 | 0.00 | 0.00 | 0.00 | 87 | 1012.6 |
| 20260503040803 | 10 | 320 | 1.6 | 4.8 | 0.00 | 0.00 | 0.00 | 87 | 1012.6 |
| 20260503040703 | 10 | 315 | 1.6 | 4.8 | 0.00 | 0.00 | 0.00 | 87 | 1012.5 |
| 20260503040604 | 10 | 323 | 1.6 | 6.4 | 0.00 | 0.00 | 0.00 | 87 | 1012.5 |
| 20260503040503 | 10 | 323 | 1.6 | 6.4 | 0.00 | 0.00 | 0.00 | 87 | 1012.5 |
| 20260503040404 | 10 | 322 | 1.6 | 6.4 | 0.00 | 0.00 | 0.00 | 87 | 1012.5 |
| 20260503040303 | 10 | 330 | 1.6 | 6.4 | 0.00 | 0.00 | 0.00 | 87 | 1012.4 |
| 20260503040204 | 10 | 322 | 1.6 | 6.4 | 0.00 | 0.00 | 0.00 | 87 | 1012.5 |
| 20260503040103 | 10 | 318 | 1.6 | 6.4 | 0.00 | 0.00 | 0.00 | 87 | 1012.4 |
| 20260503040004 | 10 | 319 | 1.6 | 6.4 | 0.00 | 0.00 | 0.00 | 87 | 1012.5 |
| 20260503035903 | 10 | 315 | 1.6 | 6.4 | 0.00 | 0.00 | 0.00 | 87 | 1012.5 |
| 20260503035804 | 10 | 315 | 1.6 | 6.4 | 0.00 | 0.00 | 0.00 | 87 | 1012.4 |
| 20260503035703 | 10 | 314 | 1.6 | 6.4 | 0.00 | 0.00 | 0.00 | 87 | 1012.5 |
| 20260503035617 | 10 | 304 | 1.6 | 6.4 | 0.00 | 0.00 | 0.00 | 87 | 1012.5 |
| 20260503035604 | 10 | 304 | 1.6 | 6.4 | 0.00 | 0.00 | 0.00 | 87 | 1012.4 |
| 20260503035503 | 10 | 304 | 1.6 | 6.4 | 0.00 | 0.00 | 0.00 | 87 | 1012.4 |
| 20260503035203 | 10 | 304 | 1.6 | 6.4 | 0.00 | 0.00 | 0.00 | 87 | 1012.3 |
| 20260503035103 | 10 | 305 | 1.6 | 6.4 | 0.00 | 0.00 | 0.00 | 87 | 1012.2 |
| 20260503035004 | 10 | 301 | 1.6 | 4.8 | 0.00 | 0.00 | 0.00 | 87 | 1012.3 |
| 20260503034903 | 10 | 304 | 1.6 | 4.8 | 0.00 | 0.00 | 0.00 | 87 | 1012.3 |
| 20260503034803 | 10 | 303 | 1.6 | 4.8 | 0.00 | 0.00 | 0.00 | 87 | 1012.3 |
| 20260503034704 | 10 | 305 | 1.6 | 4.8 | 0.00 | 0.00 | 0.00 | 87 | 1012.3 |
| 20260503034617 | 10 | 306 | 1.6 | 4.8 | 0.00 | 0.00 | 0.00 | 87 | 1012.3 |
| 20260503034603 | 10 | 307 | 1.6 | 4.8 | 0.00 | 0.00 | 0.00 | 87 | 1012.3 |
| 20260503034303 | 10 | 306 | 1.6 | 6.4 | 0.00 | 0.00 | 0.00 | 87 | 1012.2 |
| 20260503034204 | 10 | 305 | 1.6 | 6.4 | 0.00 | 0.00 | 0.00 | 87 | 1012.3 |
| 20260503034103 | 10 | 306 | 1.6 | 6.4 | 0.00 | 0.00 | 0.00 | 87 | 1012.3 |
| 20260503034003 | 10 | 306 | 1.6 | 6.4 | 0.00 | 0.00 | 0.00 | 87 | 1012.3 |
| 20260503033903 | 10 | 303 | 1.6 | 6.4 | 0.00 | 0.00 | 0.00 | 87 | 1012.3 |
| 20260503033804 | 10 | 305 | 1.6 | 6.4 | 0.00 | 0.00 | 0.00 | 87 | 1012.4 |
| 20260503033703 | 10 | 303 | 1.6 | 6.4 | 0.00 | 0.00 | 0.00 | 87 | 1012.4 |
| 20260503033603 | 10 | 303 | 1.6 | 8.0 | 0.00 | 0.00 | 0.00 | 87 | 1012.3 |
| 20260503033518 | 10 | 302 | 1.6 | 8.0 | 0.00 | 0.00 | 0.00 | 87 | 1012.3 |
| 20260503033503 | 10 | 302 | 1.6 | 8.0 | 0.00 | 0.00 | 0.00 | 87 | 1012.4 |
| 20260503033403 | 10 | 300 | 1.6 | 8.0 | 0.00 | 0.00 | 0.00 | 87 | 1012.4 |
| 20260503033217 | 10 | 298 | 1.6 | 8.0 | 0.00 | 0.00 | 0.00 | 87 | 1012.5 |
| 20260503033203 | 10 | 299 | 1.6 | 8.0 | 0.00 | 0.00 | 0.00 | 87 | 1012.5 |
| 20260503033103 | 10 | 300 | 1.6 | 8.0 | 0.00 | 0.00 | 0.00 | 87 | 1012.4 |
| 20260503032903 | 10 | 300 | 1.6 | 8.0 | 0.00 | 0.00 | 0.00 | 86 | 1012.3 |
| 20260503032803 | 11 | 300 | 1.6 | 8.0 | 0.00 | 0.00 | 0.00 | 86 | 1012.3 |
| 20260503032703 | 11 | 299 | 1.6 | 8.0 | 0.00 | 0.00 | 0.00 | 86 | 1012.3 |
| 20260503032617 | 11 | 299 | 1.6 | 8.0 | 0.00 | 0.00 | 0.00 | 86 | 1012.2 |
| 20260503032604 | 11 | 299 | 1.6 | 6.4 | 0.00 | 0.00 | 0.00 | 86 | 1012.2 |
| 20260503032503 | 11 | 301 | 1.6 | 4.8 | 0.00 | 0.00 | 0.00 | 86 | 1012.3 |
| 20260503032418 | 11 | 304 | 1.6 | 4.8 | 0.00 | 0.00 | 0.00 | 86 | 1012.3 |
| 20260503032304 | 11 | 306 | 1.6 | 6.4 | 0.00 | 0.00 | 0.00 | 86 | 1012.4 |
| 20260503032103 | 11 | 308 | 3.2 | 6.4 | 0.00 | 0.00 | 0.00 | 86 | 1012.4 |
| 20260503032003 | 11 | 308 | 3.2 | 6.4 | 0.00 | 0.00 | 0.00 | 86 | 1012.4 |
| 20260503031903 | 11 | 310 | 3.2 | 6.4 | 0.00 | 0.00 | 0.00 | 86 | 1012.4 |
| 20260503031803 | 11 | 310 | 1.6 | 8.0 | 0.00 | 0.00 | 0.00 | 86 | 1012.4 |
| 20260503031617 | 11 | 313 | 1.6 | 8.0 | 0.00 | 0.00 | 0.00 | 86 | 1012.3 |
| 20260503031603 | 11 | 313 | 1.6 | 8.0 | 0.00 | 0.00 | 0.00 | 86 | 1012.4 |
| 20260503031503 | 11 | 312 | 1.6 | 8.0 | 0.00 | 0.00 | 0.00 | 86 | 1012.3 |
| 20260503031418 | 11 | 310 | 1.6 | 8.0 | 0.00 | 0.00 | 0.00 | 86 | 1012.3 |
| 20260503031303 | 11 | 310 | 1.6 | 8.0 | 0.00 | 0.00 | 0.00 | 86 | 1012.3 |
| 20260503031103 | 11 | 311 | 1.6 | 8.0 | 0.00 | 0.00 | 0.00 | 86 | 1012.3 |
| 20260503031003 | 11 | 311 | 1.6 | 8.0 | 0.00 | 0.00 | 0.00 | 86 | 1012.2 |
| 20260503030904 | 11 | 312 | 1.6 | 8.0 | 0.00 | 0.00 | 0.00 | 86 | 1012.2 |
| 20260503030803 | 11 | 313 | 1.6 | 6.4 | 0.00 | 0.00 | 0.00 | 86 | 1012.2 |
| 20260503030603 | 11 | 313 | 1.6 | 4.8 | 0.00 | 0.00 | 0.00 | 86 | 1012.1 |
| 20260503030503 | 11 | 311 | 1.6 | 4.8 | 0.00 | 0.00 | 0.00 | 86 | 1012.2 |
| 20260503030403 | 11 | 310 | 1.6 | 4.8 | 0.00 | 0.00 | 0.00 | 86 | 1012.2 |
| 20260503030319 | 11 | 310 | 1.6 | 4.8 | 0.00 | 0.00 | 0.00 | 86 | 1012.2 |
| 20260503030303 | 11 | 309 | 1.6 | 4.8 | 0.00 | 0.00 | 0.00 | 86 | 1012.2 |
| 20260503030203 | 11 | 304 | 1.6 | 4.8 | 0.00 | 0.00 | 0.00 | 86 | 1012.2 |
| 20260503030004 | 11 | 301 | 1.6 | 4.8 | 0.00 | 0.00 | 0.00 | 86 | 1012.2 |
| 20260503025903 | 11 | 300 | 1.6 | 4.8 | 0.00 | 0.00 | 0.00 | 86 | 1012.2 |
| 20260503025818 | 11 | 299 | 1.6 | 4.8 | 0.00 | 0.00 | 0.00 | 86 | 1012.2 |
| 20260503025803 | 11 | 298 | 1.6 | 4.8 | 0.00 | 0.00 | 0.00 | 86 | 1012.2 |
| 20260503025703 | 11 | 290 | 1.6 | 4.8 | 0.00 | 0.00 | 0.00 | 86 | 1012.2 |
| 20260503025503 | 11 | 288 | 1.6 | 4.8 | 0.00 | 0.00 | 0.00 | 86 | 1012.1 |
| 20260503025403 | 11 | 288 | 1.6 | 6.4 | 0.00 | 0.00 | 0.00 | 86 | 1012.1 |
| 20260503025305 | 11 | 294 | 1.6 | 6.4 | 0.00 | 0.00 | 0.00 | 86 | 1012.2 |
| 20260503025217 | 11 | 299 | 1.6 | 6.4 | 0.00 | 0.00 | 0.00 | 86 | 1012.1 |
| 20260503025203 | 11 | 301 | 1.6 | 6.4 | 0.00 | 0.00 | 0.00 | 86 | 1012.1 |
| 20260503025103 | 11 | 307 | 1.6 | 6.4 | 0.00 | 0.00 | 0.00 | 86 | 1012.2 |
| 20260503024903 | 11 | 309 | 1.6 | 6.4 | 0.00 | 0.00 | 0.00 | 86 | 1012.1 |
| 20260503024803 | 11 | 312 | 1.6 | 8.0 | 0.00 | 0.00 | 0.00 | 86 | 1012.0 |
| 20260503024718 | 11 | 315 | 1.6 | 8.0 | 0.00 | 0.00 | 0.00 | 86 | 1012.1 |
| 20260503024703 | 11 | 315 | 3.2 | 8.0 | 0.00 | 0.00 | 0.00 | 86 | 1012.1 |
| 20260503024603 | 11 | 314 | 3.2 | 8.0 | 0.00 | 0.00 | 0.00 | 86 | 1012.1 |
| 20260503024404 | 11 | 316 | 3.2 | 12.9 | 0.00 | 0.00 | 0.00 | 86 | 1012.1 |
| 20260503024304 | 11 | 312 | 3.2 | 12.9 | 0.00 | 0.00 | 0.00 | 86 | 1012.1 |
| 20260503024219 | 11 | 311 | 3.2 | 12.9 | 0.00 | 0.00 | 0.00 | 86 | 1012.1 |
| 20260503024204 | 11 | 309 | 3.2 | 12.9 | 0.00 | 0.00 | 0.00 | 86 | 1012.0 |
| 20260503024103 | 11 | 308 | 3.2 | 12.9 | 0.00 | 0.00 | 0.00 | 86 | 1012.0 |
| 20260503023903 | 11 | 306 | 3.2 | 12.9 | 0.00 | 0.00 | 0.00 | 86 | 1012.0 |
| 20260503023804 | 11 | 304 | 3.2 | 12.9 | 0.00 | 0.00 | 0.00 | 86 | 1012.0 |
| 20260503023704 | 11 | 303 | 3.2 | 12.9 | 0.00 | 0.00 | 0.00 | 86 | 1012.1 |
| 20260503023604 | 11 | 304 | 3.2 | 12.9 | 0.00 | 0.00 | 0.00 | 86 | 1012.1 |
| 20260503023503 | 11 | 305 | 3.2 | 11.3 | 0.00 | 0.00 | 0.00 | 86 | 1012.0 |
| 20260503023405 | 11 | 301 | 3.2 | 11.3 | 0.00 | 0.00 | 0.00 | 86 | 1012.0 |
| 20260503023303 | 11 | 302 | 3.2 | 11.3 | 0.00 | 0.00 | 0.00 | 86 | 1012.0 |
| 20260503023205 | 11 | 301 | 3.2 | 9.7 | 0.00 | 0.00 | 0.00 | 86 | 1012.0 |
| 20260503023103 | 11 | 300 | 3.2 | 9.7 | 0.00 | 0.00 | 0.00 | 86 | 1012.0 |
| 20260503023003 | 11 | 300 | 3.2 | 9.7 | 0.00 | 0.00 | 0.00 | 86 | 1012.0 |
| 20260503022903 | 11 | 303 | 3.2 | 9.7 | 0.00 | 0.00 | 0.00 | 86 | 1012.0 |
| 20260503022803 | 11 | 307 | 3.2 | 9.7 | 0.00 | 0.00 | 0.00 | 86 | 1012.0 |
| 20260503022703 | 11 | 309 | 3.2 | 9.7 | 0.00 | 0.00 | 0.00 | 86 | 1012.1 |
| 20260503022604 | 11 | 311 | 3.2 | 9.7 | 0.00 | 0.00 | 0.00 | 86 | 1012.0 |
| 20260503022503 | 11 | 308 | 3.2 | 9.7 | 0.00 | 0.00 | 0.00 | 86 | 1012.0 |
| 20260503022403 | 11 | 310 | 3.2 | 9.7 | 0.00 | 0.00 | 0.00 | 86 | 1012.0 |
| 20260503022305 | 11 | 311 | 3.2 | 9.7 | 0.00 | 0.00 | 0.00 | 86 | 1012.0 |
| 20260503022205 | 11 | 311 | 3.2 | 9.7 | 0.00 | 0.00 | 0.00 | 86 | 1012.0 |
| 20260503022103 | 11 | 312 | 3.2 | 9.7 | 0.00 | 0.00 | 0.00 | 86 | 1012.0 |
| 20260503022005 | 11 | 312 | 3.2 | 9.7 | 0.00 | 0.00 | 0.00 | 86 | 1012.0 |
| 20260503021804 | 11 | 306 | 3.2 | 14.5 | 0.00 | 0.00 | 0.00 | 86 | 1011.9 |
| 20260503021703 | 11 | 305 | 3.2 | 14.5 | 0.00 | 0.00 | 0.00 | 86 | 1012.0 |
| 20260503021603 | 11 | 303 | 3.2 | 14.5 | 0.00 | 0.00 | 0.00 | 86 | 1011.9 |
| 20260503021503 | 11 | 307 | 3.2 | 14.5 | 0.00 | 0.00 | 0.00 | 86 | 1011.9 |
| 20260503021403 | 11 | 308 | 3.2 | 14.5 | 0.00 | 0.00 | 0.00 | 86 | 1012.0 |
| 20260503021303 | 11 | 309 | 3.2 | 14.5 | 0.00 | 0.00 | 0.00 | 86 | 1012.0 |
| 20260503021205 | 11 | 312 | 3.2 | 14.5 | 0.00 | 0.00 | 0.00 | 86 | 1011.9 |
| 20260503021103 | 11 | 312 | 3.2 | 14.5 | 0.00 | 0.00 | 0.00 | 86 | 1011.9 |
| 20260503021003 | 11 | 311 | 3.2 | 14.5 | 0.00 | 0.00 | 0.00 | 86 | 1011.9 |
| 20260503020903 | 11 | 310 | 3.2 | 14.5 | 0.00 | 0.00 | 0.00 | 86 | 1012.0 |
| 20260503020803 | 11 | 308 | 3.2 | 9.7 | 0.00 | 0.00 | 0.00 | 86 | 1012.0 |
| 20260503020704 | 11 | 304 | 3.2 | 9.7 | 0.00 | 0.00 | 0.00 | 86 | 1011.9 |
| 20260503020603 | 11 | 305 | 3.2 | 8.0 | 0.00 | 0.00 | 0.00 | 86 | 1011.9 |
| 20260503020503 | 11 | 303 | 3.2 | 8.0 | 0.00 | 0.00 | 0.00 | 86 | 1012.0 |
| 20260503020403 | 11 | 303 | 3.2 | 9.7 | 0.00 | 0.00 | 0.00 | 86 | 1012.0 |
| 20260503020303 | 11 | 303 | 3.2 | 9.7 | 0.00 | 0.00 | 0.00 | 86 | 1011.9 |
| 20260503020205 | 11 | 301 | 3.2 | 9.7 | 0.00 | 0.00 | 0.00 | 86 | 1011.9 |
| 20260503020007 | 11 | 303 | 3.2 | 9.7 | 0.00 | 0.00 | 0.00 | 86 | 1012.0 |
| 20260503015903 | 11 | 305 | 3.2 | 9.7 | 0.00 | 0.00 | 0.00 | 86 | 1011.9 |
| 20260503015804 | 11 | 306 | 3.2 | 9.7 | 0.00 | 0.00 | 0.00 | 85 | 1012.1 |
| 20260503015704 | 11 | 310 | 3.2 | 9.7 | 0.00 | 0.00 | 0.00 | 85 | 1012.1 |
| 20260503015618 | 11 | 305 | 3.2 | 9.7 | 0.00 | 0.00 | 0.00 | 85 | 1012.0 |
| 20260503015603 | 11 | 304 | 3.2 | 9.7 | 0.00 | 0.00 | 0.00 | 85 | 1012.0 |
| 20260503015503 | 11 | 303 | 3.2 | 9.7 | 0.00 | 0.00 | 0.00 | 85 | 1012.0 |
| 20260503015305 | 11 | 306 | 3.2 | 9.7 | 0.00 | 0.00 | 0.00 | 86 | 1012.1 |
| 20260503015203 | 11 | 308 | 3.2 | 9.7 | 0.00 | 0.00 | 0.00 | 86 | 1012.1 |
| 20260503015103 | 11 | 302 | 3.2 | 9.7 | 0.00 | 0.00 | 0.00 | 86 | 1012.0 |
| 20260503015003 | 11 | 304 | 3.2 | 9.7 | 0.00 | 0.00 | 0.00 | 86 | 1012.1 |
| 20260503014903 | 11 | 303 | 3.2 | 9.7 | 0.00 | 0.00 | 0.00 | 86 | 1012.1 |
| 20260503014803 | 11 | 303 | 3.2 | 9.7 | 0.00 | 0.00 | 0.00 | 85 | 1012.1 |
| 20260503014706 | 11 | 303 | 3.2 | 12.9 | 0.00 | 0.00 | 0.00 | 85 | 1012.1 |
| 20260503014603 | 11 | 305 | 3.2 | 12.9 | 0.00 | 0.00 | 0.00 | 85 | 1012.1 |
| 20260503014505 | 11 | 304 | 3.2 | 12.9 | 0.00 | 0.00 | 0.00 | 85 | 1012.1 |
| 20260503014403 | 11 | 304 | 3.2 | 12.9 | 0.00 | 0.00 | 0.00 | 85 | 1012.2 |
| 20260503014303 | 11 | 303 | 3.2 | 12.9 | 0.00 | 0.00 | 0.00 | 85 | 1012.2 |
| 20260503014218 | 11 | 302 | 3.2 | 12.9 | 0.00 | 0.00 | 0.00 | 85 | 1012.2 |
| 20260503014203 | 11 | 300 | 3.2 | 12.9 | 0.00 | 0.00 | 0.00 | 85 | 1012.2 |
| 20260503014103 | 11 | 303 | 4.8 | 12.9 | 0.00 | 0.00 | 0.00 | 85 | 1012.2 |
| 20260503014018 | 11 | 304 | 4.8 | 12.9 | 0.00 | 0.00 | 0.00 | 85 | 1012.2 |
| 20260503013903 | 11 | 304 | 3.2 | 12.9 | 0.00 | 0.00 | 0.00 | 85 | 1012.4 |
| 20260503013817 | 11 | 302 | 3.2 | 12.9 | 0.00 | 0.00 | 0.00 | 85 | 1012.3 |
| 20260503013703 | 11 | 301 | 3.2 | 8.0 | 0.00 | 0.00 | 0.00 | 85 | 1012.3 |
| 20260503013519 | 11 | 306 | 3.2 | 8.0 | 0.00 | 0.00 | 0.00 | 85 | 1012.3 |
| 20260503013503 | 11 | 305 | 3.2 | 8.0 | 0.00 | 0.00 | 0.00 | 85 | 1012.4 |
| 20260503013403 | 11 | 305 | 3.2 | 8.0 | 0.00 | 0.00 | 0.00 | 85 | 1012.4 |
| 20260503013318 | 11 | 307 | 3.2 | 8.0 | 0.00 | 0.00 | 0.00 | 85 | 1012.4 |
| 20260503013203 | 11 | 305 | 3.2 | 8.0 | 0.00 | 0.00 | 0.00 | 85 | 1012.4 |
| 20260503013005 | 11 | 302 | 1.6 | 8.0 | 0.00 | 0.00 | 0.00 | 85 | 1012.4 |
| 20260503012903 | 11 | 303 | 1.6 | 8.0 | 0.00 | 0.00 | 0.00 | 85 | 1012.4 |
| 20260503012803 | 11 | 309 | 3.2 | 8.0 | 0.00 | 0.00 | 0.00 | 85 | 1012.4 |
| 20260503012717 | 11 | 312 | 3.2 | 9.7 | 0.00 | 0.00 | 0.00 | 85 | 1012.4 |
| 20260503012703 | 11 | 311 | 3.2 | 9.7 | 0.00 | 0.00 | 0.00 | 85 | 1012.4 |
| 20260503012603 | 11 | 309 | 3.2 | 9.7 | 0.00 | 0.00 | 0.00 | 85 | 1012.5 |
| 20260503012517 | 11 | 308 | 3.2 | 9.7 | 0.00 | 0.00 | 0.00 | 85 | 1012.4 |
| 20260503012403 | 11 | 307 | 3.2 | 9.7 | 0.00 | 0.00 | 0.00 | 85 | 1012.5 |
| 20260503012318 | 11 | 307 | 3.2 | 11.3 | 0.00 | 0.00 | 0.00 | 85 | 1012.4 |
| 20260503012203 | 11 | 308 | 3.2 | 12.9 | 0.00 | 0.00 | 0.00 | 85 | 1012.5 |
| 20260503012004 | 11 | 313 | 4.8 | 12.9 | 0.00 | 0.00 | 0.00 | 85 | 1012.5 |
| 20260503011903 | 11 | 313 | 4.8 | 12.9 | 0.00 | 0.00 | 0.00 | 85 | 1012.5 |
| 20260503011803 | 11 | 310 | 4.8 | 12.9 | 0.00 | 0.00 | 0.00 | 85 | 1012.5 |
| 20260503011703 | 11 | 311 | 4.8 | 12.9 | 0.00 | 0.00 | 0.00 | 85 | 1012.5 |
| 20260503011603 | 11 | 310 | 4.8 | 12.9 | 0.00 | 0.00 | 0.00 | 85 | 1012.6 |
| 20260503011503 | 11 | 309 | 4.8 | 12.9 | 0.00 | 0.00 | 0.00 | 85 | 1012.6 |
| 20260503011403 | 11 | 311 | 4.8 | 12.9 | 0.00 | 0.00 | 0.00 | 85 | 1012.6 |
| 20260503011303 | 11 | 307 | 4.8 | 12.9 | 0.00 | 0.00 | 0.00 | 85 | 1012.6 |
| 20260503011203 | 11 | 309 | 4.8 | 11.3 | 0.00 | 0.00 | 0.00 | 85 | 1012.7 |
| 20260503011117 | 11 | 307 | 4.8 | 11.3 | 0.00 | 0.00 | 0.00 | 85 | 1012.6 |
| 20260503011103 | 11 | 308 | 4.8 | 11.3 | 0.00 | 0.00 | 0.00 | 85 | 1012.6 |
| 20260503011003 | 11 | 306 | 4.8 | 12.9 | 0.00 | 0.00 | 0.00 | 85 | 1012.6 |
| 20260503010803 | 11 | 302 | 4.8 | 12.9 | 0.00 | 0.00 | 0.00 | 85 | 1012.7 |
| 20260503010717 | 11 | 297 | 4.8 | 12.9 | 0.00 | 0.00 | 0.00 | 85 | 1012.7 |
| 20260503010703 | 11 | 298 | 3.2 | 12.9 | 0.00 | 0.00 | 0.00 | 85 | 1012.7 |
| 20260503010603 | 11 | 302 | 3.2 | 12.9 | 0.00 | 0.00 | 0.00 | 85 | 1012.6 |
| 20260503010403 | 11 | 298 | 4.8 | 12.9 | 0.00 | 0.00 | 0.00 | 85 | 1012.6 |
| 20260503010318 | 11 | 298 | 4.8 | 12.9 | 0.00 | 0.00 | 0.00 | 85 | 1012.6 |
| 20260503010303 | 11 | 298 | 3.2 | 12.9 | 0.00 | 0.00 | 0.00 | 85 | 1012.6 |
| 20260503010203 | 11 | 298 | 3.2 | 12.9 | 0.00 | 0.00 | 0.00 | 85 | 1012.6 |
| 20260503010003 | 11 | 295 | 3.2 | 14.5 | 0.00 | 0.00 | 0.00 | 85 | 1012.6 |
| 20260503005903 | 11 | 295 | 3.2 | 14.5 | 0.00 | 0.00 | 0.00 | 85 | 1012.6 |
| 20260503005803 | 11 | 301 | 4.8 | 14.5 | 0.00 | 0.00 | 0.00 | 85 | 1012.7 |
| 20260503005703 | 11 | 302 | 4.8 | 14.5 | 0.00 | 0.00 | 0.00 | 85 | 1012.6 |
| 20260503005603 | 11 | 301 | 4.8 | 14.5 | 0.00 | 0.00 | 0.00 | 85 | 1012.6 |
| 20260503005519 | 11 | 304 | 4.8 | 14.5 | 0.00 | 0.00 | 0.00 | 85 | 1012.7 |
| 20260503005503 | 11 | 305 | 4.8 | 14.5 | 0.00 | 0.00 | 0.00 | 85 | 1012.7 |
| 20260503005403 | 11 | 307 | 4.8 | 14.5 | 0.00 | 0.00 | 0.00 | 85 | 1012.7 |
| 20260503005203 | 12 | 309 | 4.8 | 14.5 | 0.00 | 0.00 | 0.00 | 85 | 1012.7 |
| 20260503005105 | 12 | 308 | 3.2 | 12.9 | 0.00 | 0.00 | 0.00 | 85 | 1012.7 |
| 20260503005003 | 12 | 310 | 3.2 | 12.9 | 0.00 | 0.00 | 0.00 | 85 | 1012.6 |
| 20260503004903 | 12 | 314 | 3.2 | 12.9 | 0.00 | 0.00 | 0.00 | 85 | 1012.7 |
| 20260503004803 | 12 | 311 | 3.2 | 12.9 | 0.00 | 0.00 | 0.00 | 85 | 1012.7 |
| 20260503004703 | 12 | 312 | 3.2 | 12.9 | 0.00 | 0.00 | 0.00 | 85 | 1012.7 |
| 20260503004603 | 12 | 312 | 3.2 | 12.9 | 0.00 | 0.00 | 0.00 | 85 | 1012.8 |
| 20260503004503 | 12 | 314 | 3.2 | 12.9 | 0.00 | 0.00 | 0.00 | 85 | 1012.7 |
| 20260503004403 | 12 | 309 | 3.2 | 12.9 | 0.00 | 0.00 | 0.00 | 85 | 1012.7 |
| 20260503004303 | 12 | 307 | 3.2 | 12.9 | 0.00 | 0.00 | 0.00 | 85 | 1012.8 |
| 20260503004203 | 12 | 310 | 3.2 | 11.3 | 0.00 | 0.00 | 0.00 | 85 | 1012.8 |
| 20260503004103 | 12 | 314 | 3.2 | 11.3 | 0.00 | 0.00 | 0.00 | 85 | 1012.8 |
| 20260503004003 | 12 | 315 | 3.2 | 11.3 | 0.00 | 0.00 | 0.00 | 85 | 1012.8 |
| 20260503003903 | 12 | 312 | 3.2 | 11.3 | 0.00 | 0.00 | 0.00 | 85 | 1012.8 |
| 20260503003803 | 12 | 311 | 3.2 | 11.3 | 0.00 | 0.00 | 0.00 | 85 | 1012.9 |
| 20260503003703 | 12 | 310 | 3.2 | 11.3 | 0.00 | 0.00 | 0.00 | 85 | 1012.8 |
| 20260503003603 | 12 | 311 | 4.8 | 11.3 | 0.00 | 0.00 | 0.00 | 85 | 1012.8 |
| 20260503003503 | 12 | 309 | 3.2 | 16.1 | 0.00 | 0.00 | 0.00 | 85 | 1012.8 |
| 20260503003403 | 12 | 313 | 4.8 | 16.1 | 0.00 | 0.00 | 0.00 | 85 | 1012.8 |
| 20260503003303 | 12 | 315 | 4.8 | 16.1 | 0.00 | 0.00 | 0.00 | 85 | 1012.8 |
| 20260503003203 | 12 | 312 | 4.8 | 16.1 | 0.00 | 0.00 | 0.00 | 84 | 1012.9 |
| 20260503003103 | 12 | 308 | 4.8 | 16.1 | 0.00 | 0.00 | 0.00 | 84 | 1012.8 |
| 20260503003003 | 12 | 308 | 3.2 | 16.1 | 0.00 | 0.00 | 0.00 | 84 | 1012.8 |
| 20260503002803 | 12 | 307 | 3.2 | 16.1 | 0.00 | 0.00 | 0.00 | 84 | 1012.8 |
| 20260503002703 | 12 | 307 | 3.2 | 16.1 | 0.00 | 0.00 | 0.00 | 84 | 1012.8 |
| 20260503002503 | 12 | 303 | 3.2 | 9.7 | 0.00 | 0.00 | 0.00 | 84 | 1012.7 |
| 20260503002403 | 12 | 301 | 3.2 | 9.7 | 0.00 | 0.00 | 0.00 | 84 | 1012.8 |
| 20260503002305 | 12 | 298 | 3.2 | 8.0 | 0.00 | 0.00 | 0.00 | 84 | 1012.8 |
| 20260503002203 | 12 | 300 | 3.2 | 8.0 | 0.00 | 0.00 | 0.00 | 84 | 1012.8 |
| 20260503002103 | 12 | 300 | 3.2 | 8.0 | 0.00 | 0.00 | 0.00 | 84 | 1012.8 |
| 20260503002003 | 12 | 298 | 3.2 | 12.9 | 0.00 | 0.00 | 0.00 | 84 | 1012.8 |
| 20260503001903 | 12 | 300 | 3.2 | 12.9 | 0.00 | 0.00 | 0.00 | 84 | 1012.8 |
| 20260503001803 | 12 | 303 | 3.2 | 12.9 | 0.00 | 0.00 | 0.00 | 84 | 1012.8 |
| 20260503001703 | 12 | 302 | 3.2 | 12.9 | 0.00 | 0.00 | 0.00 | 84 | 1012.8 |
| 20260503001603 | 12 | 302 | 3.2 | 12.9 | 0.00 | 0.00 | 0.00 | 84 | 1012.8 |
| 20260503001503 | 12 | 300 | 3.2 | 14.5 | 0.00 | 0.00 | 0.00 | 84 | 1012.8 |
| 20260503001403 | 12 | 301 | 3.2 | 14.5 | 0.00 | 0.00 | 0.00 | 84 | 1012.9 |
| 20260503001303 | 12 | 302 | 4.8 | 14.5 | 0.00 | 0.00 | 0.00 | 84 | 1012.8 |
| 20260503001203 | 12 | 302 | 4.8 | 14.5 | 0.00 | 0.00 | 0.00 | 84 | 1012.8 |
| 20260503001103 | 12 | 301 | 3.2 | 14.5 | 0.00 | 0.00 | 0.00 | 84 | 1012.8 |
| 20260503001017 | 12 | 302 | 3.2 | 14.5 | 0.00 | 0.00 | 0.00 | 84 | 1012.8 |
| 20260503001003 | 12 | 302 | 3.2 | 14.5 | 0.00 | 0.00 | 0.00 | 84 | 1012.8 |
| 20260503000918 | 12 | 302 | 3.2 | 14.5 | 0.00 | 0.00 | 0.00 | 84 | 1012.8 |
| 20260503000904 | 12 | 302 | 3.2 | 14.5 | 0.00 | 0.00 | 0.00 | 84 | 1012.7 |
| 20260503000617 | 12 | 295 | 3.2 | 14.5 | 0.00 | 0.00 | 0.00 | 83 | 1012.8 |
| 20260503000603 | 12 | 294 | 3.2 | 14.5 | 0.00 | 0.00 | 0.00 | 83 | 1012.8 |
| 20260503000503 | 12 | 296 | 3.2 | 14.5 | 0.00 | 0.00 | 0.00 | 83 | 1012.8 |
| 20260503000204 | 12 | 296 | 3.2 | 12.9 | 0.00 | 0.00 | 0.00 | 84 | 1012.8 |
| 20260503000116 | 12 | 298 | 3.2 | 12.9 | 0.00 | 0.00 | 0.00 | 84 | 1012.8 |
| 20260503000103 | 12 | 299 | 4.8 | 12.9 | 0.00 | 0.00 | 0.00 | 84 | 1012.8 |
| 20260503000005 | 12 | 298 | 4.8 | 12.9 | 0.00 | 0.00 | 0.00 | 84 | 1012.8 |
| 20260502235803 | 12 | 301 | 4.8 | 12.9 | 0.00 | 0.00 | 0.00 | 84 | 1012.8 |
| 20260502235703 | 12 | 304 | 4.8 | 12.9 | 0.00 | 0.00 | 0.00 | 84 | 1012.8 |
| 20260502235603 | 12 | 307 | 4.8 | 12.9 | 0.00 | 0.00 | 0.00 | 84 | 1012.8 |
| 20260502235503 | 12 | 308 | 4.8 | 12.9 | 0.00 | 0.00 | 0.00 | 83 | 1012.8 |
| 20260502235403 | 12 | 307 | 4.8 | 11.3 | 0.00 | 0.00 | 0.00 | 83 | 1012.9 |
| 20260502235305 | 12 | 308 | 4.8 | 12.9 | 0.00 | 0.00 | 0.00 | 83 | 1013.0 |
| 20260502235218 | 12 | 307 | 4.8 | 12.9 | 0.00 | 0.00 | 0.00 | 83 | 1012.9 |
| 20260502235203 | 12 | 306 | 4.8 | 12.9 | 0.00 | 0.00 | 0.00 | 83 | 1012.9 |
| 20260502235118 | 12 | 307 | 4.8 | 12.9 | 0.00 | 0.00 | 0.00 | 83 | 1013.0 |
| 20260502235103 | 12 | 306 | 4.8 | 12.9 | 0.00 | 0.00 | 0.00 | 83 | 1013.0 |
| 20260502234803 | 12 | 306 | 4.8 | 12.9 | 0.00 | 0.00 | 0.00 | 83 | 1013.0 |
| 20260502234703 | 12 | 306 | 4.8 | 14.5 | 0.00 | 0.00 | 0.00 | 83 | 1013.0 |
| 20260502234603 | 12 | 300 | 3.2 | 14.5 | 0.00 | 0.00 | 0.00 | 83 | 1013.1 |
| 20260502234518 | 12 | 301 | 3.2 | 14.5 | 0.00 | 0.00 | 0.00 | 83 | 1013.1 |
| 20260502234503 | 12 | 299 | 3.2 | 14.5 | 0.00 | 0.00 | 0.00 | 83 | 1013.1 |
| 20260502234403 | 12 | 302 | 3.2 | 14.5 | 0.00 | 0.00 | 0.00 | 83 | 1013.2 |
| 20260502234317 | 12 | 301 | 3.2 | 14.5 | 0.00 | 0.00 | 0.00 | 83 | 1013.2 |
| 20260502234203 | 12 | 305 | 4.8 | 14.5 | 0.00 | 0.00 | 0.00 | 83 | 1013.2 |
| 20260502234116 | 12 | 304 | 4.8 | 14.5 | 0.00 | 0.00 | 0.00 | 83 | 1013.1 |
| 20260502234005 | 12 | 307 | 4.8 | 14.5 | 0.00 | 0.00 | 0.00 | 83 | 1013.2 |
| 20260502233803 | 12 | 308 | 4.8 | 16.1 | 0.00 | 0.00 | 0.00 | 83 | 1013.3 |
| 20260502233703 | 12 | 308 | 4.8 | 16.1 | 0.00 | 0.00 | 0.00 | 83 | 1013.3 |
| 20260502233603 | 12 | 309 | 4.8 | 16.1 | 0.00 | 0.00 | 0.00 | 82 | 1013.2 |
| 20260502233503 | 12 | 308 | 4.8 | 16.1 | 0.00 | 0.00 | 0.00 | 82 | 1013.3 |
| 20260502233404 | 12 | 308 | 4.8 | 16.1 | 0.00 | 0.00 | 0.00 | 82 | 1013.2 |
| 20260502233303 | 12 | 308 | 4.8 | 16.1 | 0.00 | 0.00 | 0.00 | 82 | 1013.3 |
| 20260502233220 | 12 | 305 | 4.8 | 16.1 | 0.00 | 0.00 | 0.00 | 82 | 1013.3 |
| 20260502233203 | 12 | 306 | 4.8 | 16.1 | 0.00 | 0.00 | 0.00 | 82 | 1013.4 |
| 20260502233103 | 13 | 308 | 4.8 | 16.1 | 0.00 | 0.00 | 0.00 | 82 | 1013.3 |
| 20260502232903 | 13 | 306 | 4.8 | 16.1 | 0.00 | 0.00 | 0.00 | 83 | 1013.5 |
| 20260502232803 | 13 | 306 | 4.8 | 11.3 | 0.00 | 0.00 | 0.00 | 83 | 1013.3 |
| 20260502232703 | 13 | 307 | 4.8 | 11.3 | 0.00 | 0.00 | 0.00 | 83 | 1013.3 |
| 20260502232617 | 13 | 308 | 4.8 | 11.3 | 0.00 | 0.00 | 0.00 | 83 | 1013.3 |
| 20260502232603 | 13 | 307 | 4.8 | 11.3 | 0.00 | 0.00 | 0.00 | 83 | 1013.3 |
| 20260502232518 | 13 | 307 | 4.8 | 11.3 | 0.00 | 0.00 | 0.00 | 83 | 1013.3 |
| 20260502232503 | 13 | 306 | 4.8 | 11.3 | 0.00 | 0.00 | 0.00 | 83 | 1013.3 |
| 20260502232204 | 13 | 302 | 3.2 | 12.9 | 0.00 | 0.00 | 0.00 | 83 | 1013.3 |
| 20260502232105 | 13 | 301 | 3.2 | 12.9 | 0.00 | 0.00 | 0.00 | 83 | 1013.4 |
| 20260502232017 | 13 | 302 | 3.2 | 12.9 | 0.00 | 0.00 | 0.00 | 83 | 1013.4 |
| 20260502232003 | 13 | 302 | 4.8 | 12.9 | 0.00 | 0.00 | 0.00 | 83 | 1013.4 |
| 20260502231903 | 12 | 304 | 4.8 | 12.9 | 0.00 | 0.00 | 0.00 | 83 | 1013.5 |
| 20260502231617 | 13 | 305 | 4.8 | 14.5 | 0.00 | 0.00 | 0.00 | 83 | 1013.4 |
| 20260502231603 | 13 | 306 | 4.8 | 14.5 | 0.00 | 0.00 | 0.00 | 83 | 1013.4 |
| 20260502231503 | 12 | 307 | 4.8 | 14.5 | 0.00 | 0.00 | 0.00 | 83 | 1013.5 |
| 20260502231303 | 12 | 308 | 4.8 | 14.5 | 0.00 | 0.00 | 0.00 | 83 | 1013.5 |
| 20260502231203 | 12 | 308 | 4.8 | 14.5 | 0.00 | 0.00 | 0.00 | 83 | 1013.5 |
| 20260502231103 | 12 | 307 | 4.8 | 14.5 | 0.00 | 0.00 | 0.00 | 83 | 1013.5 |
| 20260502231003 | 12 | 305 | 4.8 | 14.5 | 0.00 | 0.00 | 0.00 | 83 | 1013.5 |